GFSWCAN_prec_precacc24_261.txt.gz
Total_Precipitation_Accumulation
0.09 0.12 0.14 0.13 0.11 0.09 0.08 0.08 0.12 0.22 0.34 0.39 0.44 0.47 0.39 0.24 0.21 0.62 1.09 0.61 0.61 0.75 0.39 0.08 0.02 0.04 0.07 0.14 0.27 0.17 0.25 0.20 0.38 0.74 0.81 0.41 0.22 0.09 0.10 0.04 0.03 0.12 0.26 0.21 0.08 0.07 0.05 0.00 0.00 0.02 0.03 0.01 0.02 0.02
0.12 0.12 0.13 0.12 0.10 0.08 0.07 0.07 0.13 0.25 0.37 0.44 0.57 0.61 0.52 0.32 0.31 0.55 1.22 0.87 0.70 0.79 0.74 0.24 0.08 0.05 0.06 0.06 0.10 0.16 0.42 0.28 0.58 0.72 0.57 0.47 0.33 0.21 0.19 0.15 0.03 0.05 0.12 0.21 0.16 0.10 0.02 0.00 0.01 0.02 0.01 0.01 0.05 0.26
0.11 0.13 0.14 0.09 0.06 0.05 0.06 0.05 0.06 0.24 0.39 0.42 0.70 0.80 0.55 0.46 0.37 0.53 1.04 0.84 1.21 1.90 1.40 0.62 0.29 0.06 0.03 0.02 0.08 0.31 0.29 0.26 0.25 0.39 0.56 0.69 0.70 0.32 0.20 0.13 0.12 0.08 0.05 0.15 0.21 0.10 0.02 0.01 0.01 0.01 0.06 0.16 0.10 0.05
0.12 0.13 0.10 0.07 0.04 0.03 0.01 0.00 0.06 0.36 0.35 0.53 0.92 1.16 0.76 0.60 0.50 0.56 1.08 1.13 1.26 1.81 1.49 0.73 0.42 0.20 0.08 0.04 0.04 0.11 0.11 0.23 0.50 0.60 0.81 0.88 0.62 0.33 0.35 0.27 0.21 0.13 0.12 0.14 0.21 0.11 0.05 0.04 0.06 0.15 0.13 0.09 0.16 0.26
0.11 0.10 0.08 0.07 0.03 0.01 0.01 0.05 0.25 0.35 0.36 0.66 1.01 1.15 0.81 0.59 0.60 0.78 1.15 1.26 0.84 1.08 1.19 0.60 0.47 0.38 0.13 0.07 0.11 0.09 0.12 0.22 0.49 0.97 1.13 0.91 0.42 0.37 0.33 0.26 0.24 0.07 0.20 0.28 0.21 0.16 0.19 0.17 0.23 0.24 0.32 0.22 0.09 0.09
0.08 0.09 0.08 0.04 0.01 0.02 0.07 0.13 0.25 0.26 0.42 0.74 1.00 0.98 0.60 0.57 0.93 1.58 2.23 1.83 1.07 0.40 1.18 0.86 0.55 0.50 0.30 0.11 0.14 0.22 0.22 0.34 0.67 1.07 1.23 0.67 0.33 0.42 0.65 0.36 0.10 0.06 0.07 0.17 0.18 0.13 0.25 0.37 0.24 0.29 0.27 0.38 0.41 0.34
0.05 0.07 0.05 0.03 0.03 0.04 0.05 0.06 0.14 0.25 0.44 0.65 0.79 0.90 0.63 0.57 1.39 1.97 1.20 0.99 0.83 0.79 1.89 1.22 0.58 0.49 0.46 0.26 0.27 0.42 0.49 0.56 0.79 1.06 1.07 0.72 0.30 0.39 0.58 0.33 0.09 0.19 0.17 0.22 0.23 0.24 0.15 0.41 0.29 0.08 0.13 0.21 0.35 0.36
0.04 0.03 0.02 0.02 0.01 0.02 0.01 0.01 0.05 0.15 0.28 0.46 0.64 0.88 1.01 1.04 1.57 1.36 0.60 0.39 0.48 1.11 1.40 1.05 0.66 0.80 0.65 0.54 0.53 0.48 0.64 0.88 1.00 0.76 0.54 0.52 0.51 0.44 0.41 0.05 0.03 0.12 0.22 0.24 0.25 0.34 0.28 0.21 0.58 0.41 0.21 0.31 0.43 0.24
0.03 0.02 0.01 0.01 0.01 0.01 0.01 0.01 0.01 0.02 0.09 0.19 0.28 0.41 0.48 0.77 1.14 0.90 0.47 0.43 0.44 0.71 0.91 0.59 0.42 0.59 0.69 0.80 0.68 0.65 0.52 0.74 0.73 0.60 0.38 0.33 0.51 0.48 0.13 0.06 0.04 0.05 0.26 0.33 0.35 0.36 0.36 0.25 0.44 0.65 0.36 0.25 0.27 0.25
0.03 0.02 0.02 0.01 0.01 0.02 0.02 0.01 0.00 0.01 0.03 0.06 0.14 0.27 0.44 0.71 0.59 0.42 0.54 0.76 0.93 0.81 0.58 0.38 0.26 0.55 0.63 0.70 0.65 0.80 0.68 0.56 0.51 0.34 0.33 0.38 0.22 0.07 0.03 0.11 0.18 0.17 0.22 0.36 0.44 0.51 0.41 0.35 0.32 0.49 0.31 0.11 0.17 0.31
0.08 0.02 0.03 0.03 0.02 0.03 0.03 0.01 0.00 0.00 0.03 0.10 0.17 0.19 0.26 0.26 0.18 0.24 0.28 0.33 0.36 0.36 0.27 0.30 0.28 0.35 0.40 0.72 0.65 0.49 0.65 0.48 0.34 0.17 0.17 0.20 0.10 0.07 0.08 0.12 0.27 0.38 0.35 0.37 0.65 0.90 0.56 0.35 0.22 0.32 0.30 0.25 0.31 0.41
0.02 0.03 0.02 0.03 0.07 0.08 0.06 0.04 0.02 0.04 0.21 0.17 0.11 0.05 0.06 0.09 0.15 0.20 0.18 0.17 0.19 0.17 0.18 0.19 0.28 0.32 0.42 0.48 0.80 0.86 0.59 0.53 0.38 0.26 0.33 0.16 0.08 0.07 0.11 0.16 0.19 0.30 0.40 0.66 0.94 1.03 0.61 0.40 0.32 0.34 0.41 0.47 0.40 0.35
0.00 0.00 0.01 0.02 0.05 0.05 0.03 0.04 0.02 0.00 0.01 0.05 0.06 0.04 0.05 0.07 0.15 0.15 0.13 0.09 0.15 0.11 0.10 0.20 0.33 0.40 0.39 0.35 0.44 0.50 0.55 0.36 0.30 0.33 0.22 0.14 0.04 0.03 0.10 0.19 0.26 0.29 0.31 0.43 0.51 0.76 0.64 0.53 0.61 0.47 0.41 0.38 0.29 0.18
0.00 0.00 0.00 0.01 0.01 0.00 0.00 0.00 0.00 0.00 0.04 0.18 0.12 0.10 0.05 0.09 0.08 0.10 0.08 0.14 0.14 0.11 0.12 0.14 0.18 0.20 0.20 0.24 0.19 0.22 0.22 0.22 0.24 0.22 0.24 0.08 0.03 0.06 0.13 0.23 0.29 0.38 0.32 0.38 0.53 0.54 0.48 0.38 0.39 0.31 0.18 0.11 0.04 0.04
0.00 0.00 0.00 0.00 0.00 0.00 0.00 0.00 0.00 0.00 0.05 0.10 0.12 0.06 0.08 0.10 0.07 0.06 0.08 0.11 0.12 0.06 0.06 0.07 0.08 0.08 0.11 0.12 0.08 0.12 0.15 0.16 0.15 0.16 0.07 0.09 0.17 0.27 0.37 0.39 0.33 0.31 0.28 0.25 0.29 0.32 0.31 0.23 0.18 0.21 0.12 0.03 0.00 0.00
0.01 0.00 0.00 0.00 0.00 0.00 0.00 0.00 0.00 0.02 0.09 0.07 0.04 0.01 0.01 0.03 0.05 0.04 0.05 0.07 0.07 0.04 0.03 0.04 0.06 0.06 0.05 0.02 0.04 0.03 0.03 0.05 0.05 0.01 0.02 0.09 0.19 0.32 0.36 0.34 0.27 0.21 0.12 0.10 0.08 0.05 0.06 0.05 0.02 0.02 0.01 0.00 0.00 0.00
0.00 0.00 0.00 0.00 0.00 0.00 0.00 0.00 0.03 0.06 0.05 0.03 0.00 0.00 0.02 0.04 0.02 0.03 0.06 0.06 0.03 0.02 0.04 0.05 0.05 0.02 0.01 0.00 0.01 0.01 0.01 0.01 0.01 0.03 0.03 0.06 0.14 0.21 0.18 0.12 0.08 0.04 0.02 0.02 0.01 0.01 0.01 0.00 0.00 0.00 0.00 0.00 0.00 0.00
0.00 0.00 0.00 0.00 0.00 0.00 0.00 0.00 0.04 0.05 0.02 0.00 0.00 0.00 0.01 0.03 0.05 0.07 0.07 0.05 0.05 0.07 0.04 0.03 0.01 0.00 0.00 0.00 0.02 0.01 0.00 0.02 0.02 0.02 0.04 0.07 0.09 0.08 0.03 0.01 0.00 0.00 0.00 0.00 0.00 0.00 0.00 0.00 0.00 0.00 0.00 0.00 0.00 0.00
0.00 0.00 0.00 0.00 0.00 0.00 0.05 0.01 0.01 0.02 0.00 0.00 0.00 0.00 0.01 0.01 0.01 0.00 0.01 0.01 0.00 0.00 0.00 0.00 0.00 0.01 0.02 0.01 0.00 0.00 0.00 0.01 0.02 0.02 0.03 0.03 0.01 0.00 0.00 0.00 0.00 0.00 0.00 0.00 0.00 0.00 0.00 0.00 0.00 0.00 0.00 0.00 0.00 0.00
0.00 0.00 0.00 0.00 0.00 0.00 0.04 0.02 0.00 0.01 0.01 0.00 0.00 0.00 0.00 0.00 0.00 0.00 0.00 0.00 0.00 0.00 0.00 0.00 0.00 0.01 0.00 0.00 0.00 0.00 0.00 0.00 0.00 0.00 0.01 0.00 0.00 0.00 0.00 0.00 0.00 0.00 0.00 0.00 0.00 0.00 0.00 0.00 0.00 0.00 0.00 0.00 0.00 0.00
0.00 0.00 0.00 0.00 0.00 0.00 0.02 0.01 0.00 0.00 0.00 0.00 0.00 0.00 0.01 0.00 0.00 0.00 0.00 0.00 0.00 0.00 0.00 0.00 0.00 0.00 0.00 0.00 0.00 0.00 0.00 0.00 0.00 0.01 0.00 0.00 0.00 0.00 0.00 0.00 0.00 0.00 0.00 0.00 0.00 0.00 0.00 0.00 0.00 0.00 0.00 0.00 0.00 0.00
0.00 0.00 0.00 0.00 0.00 0.00 0.00 0.00 0.00 0.00 0.00 0.00 0.00 0.01 0.01 0.00 0.00 0.00 0.00 0.00 0.00 0.00 0.00 0.00 0.00 0.00 0.00 0.00 0.00 0.00 0.00 0.00 0.00 0.00 0.00 0.00 0.00 0.00 0.00 0.00 0.00 0.00 0.00 0.00 0.00 0.00 0.00 0.00 0.00 0.00 0.01 0.00 0.00 0.00
0.00 0.00 0.00 0.00 0.00 0.00 0.00 0.00 0.00 0.00 0.01 0.01 0.01 0.01 0.01 0.00 0.00 0.00 0.00 0.00 0.00 0.00 0.00 0.00 0.00 0.00 0.00 0.00 0.00 0.00 0.00 0.00 0.00 0.00 0.00 0.00 0.00 0.00 0.00 0.00 0.00 0.00 0.01 0.01 0.00 0.00 0.00 0.00 0.00 0.01 0.00 0.00 0.00 0.01
0.00 0.00 0.00 0.00 0.00 0.00 0.00 0.00 0.00 0.00 0.00 0.00 0.01 0.01 0.00 0.00 0.00 0.00 0.00 0.00 0.00 0.00 0.00 0.00 0.00 0.00 0.00 0.00 0.00 0.00 0.00 0.00 0.00 0.00 0.00 0.00 0.00 0.00 0.00 0.00 0.00 0.00 0.00 0.00 0.00 0.00 0.00 0.00 0.00 0.00 0.00 0.00 0.00 0.00
0.00 0.00 0.00 0.00 0.00 0.00 0.00 0.00 0.00 0.00 0.00 0.00 0.00 0.00 0.00 0.00 0.00 0.00 0.00 0.00 0.00 0.00 0.00 0.00 0.00 0.00 0.00 0.01 0.01 0.00 0.00 0.00 0.00 0.00 0.00 0.00 0.00 0.00 0.00 0.00 0.00 0.00 0.00 0.00 0.01 0.00 0.00 0.00 0.00 0.00 0.00 0.00 0.00 0.00
0.01 0.00 0.00 0.00 0.00 0.00 0.00 0.00 0.00 0.00 0.00 0.00 0.01 0.00 0.00 0.00 0.00 0.00 0.00 0.00 0.00 0.00 0.00 0.00 0.00 0.00 0.00 0.00 0.01 0.00 0.00 0.00 0.00 0.00 0.00 0.00 0.00 0.00 0.00 0.00 0.01 0.03 0.00 0.00 0.00 0.00 0.00 0.00 0.00 0.00 0.00 0.00 0.00 0.00
0.01 0.00 0.00 0.00 0.00 0.00 0.00 0.00 0.00 0.00 0.00 0.00 0.00 0.00 0.00 0.00 0.00 0.00 0.00 0.00 0.00 0.00 0.00 0.00 0.00 0.00 0.00 0.00 0.00 0.00 0.00 0.00 0.00 0.00 0.00 0.00 0.00 0.00 0.00 0.00 0.00 0.00 0.00 0.00 0.00 0.00 0.00 0.00 0.00 0.00 0.00 0.00 0.00 0.00
0.00 0.00 0.00 0.00 0.00 0.00 0.00 0.00 0.00 0.00 0.00 0.00 0.00 0.00 0.00 0.00 0.00 0.00 0.00 0.00 0.00 0.00 0.00 0.00 0.00 0.00 0.00 0.00 0.00 0.00 0.00 0.00 0.00 0.00 0.00 0.01 0.00 0.00 0.00 0.00 0.00 0.00 0.00 0.00 0.00 0.00 0.00 0.00 0.00 0.00 0.00 0.00 0.00 0.00
0.00 0.00 0.00 0.00 0.00 0.00 0.00 0.00 0.00 0.00 0.00 0.00 0.00 0.00 0.00 0.01 0.02 0.01 0.01 0.00 0.00 0.00 0.00 0.00 0.00 0.00 0.00 0.00 0.00 0.00 0.01 0.00 0.00 0.01 0.01 0.02 0.02 0.02 0.01 0.00 0.00 0.00 0.00 0.00 0.00 0.00 0.00 0.00 0.00 0.00 0.00 0.00 0.00 0.00
0.00 0.00 0.01 0.00 0.00 0.01 0.00 0.00 0.00 0.00 0.00 0.00 0.00 0.00 0.00 0.02 0.04 0.02 0.00 0.00 0.00 0.00 0.00 0.01 0.01 0.01 0.01 0.01 0.01 0.03 0.07 0.05 0.00 0.00 0.00 0.00 0.00 0.00 0.00 0.00 0.00 0.00 0.00 0.00 0.00 0.01 0.01 0.01 0.01 0.00 0.00 0.01 0.00 0.00
0.00 0.01 0.01 0.01 0.00 0.01 0.01 0.00 0.01 0.00 0.00 0.00 0.00 0.00 0.01 0.03 0.05 0.03 0.01 0.01 0.01 0.01 0.01 0.01 0.01 0.02 0.04 0.05 0.06 0.07 0.11 0.10 0.01 0.01 0.01 0.00 0.00 0.00 0.00 0.00 0.00 0.00 0.00 0.00 0.00 0.00 0.01 0.01 0.01 0.00 0.00 0.00 0.00 0.00
0.01 0.01 0.01 0.02 0.03 0.01 0.01 0.01 0.01 0.02 0.03 0.03 0.03 0.01 0.03 0.03 0.04 0.05 0.04 0.02 0.03 0.01 0.01 0.01 0.01 0.01 0.02 0.04 0.07 0.10 0.11 0.10 0.02 0.02 0.02 0.01 0.00 0.00 0.00 0.00 0.00 0.00 0.00 0.00 0.00 0.00 0.00 0.00 0.01 0.00 0.00 0.00 0.00 0.00
0.01 0.01 0.03 0.06 0.06 0.04 0.02 0.03 0.02 0.04 0.06 0.07 0.05 0.05 0.05 0.04 0.04 0.07 0.05 0.05 0.05 0.03 0.02 0.02 0.01 0.01 0.00 0.00 0.01 0.04 0.05 0.09 0.12 0.07 0.04 0.04 0.02 0.01 0.01 0.00 0.00 0.00 0.00 0.00 0.00 0.00 0.00 0.00 0.00 0.00 0.00 0.00 0.00 0.00

GFSWCAN_prec_precacc24_264.txt.gz
Total_Precipitation_Accumulation
0.05 0.08 0.10 0.09 0.08 0.07 0.06 0.07 0.09 0.12 0.14 0.16 0.19 0.19 0.18 0.17 0.21 0.50 0.80 0.47 0.45 0.57 0.31 0.07 0.02 0.04 0.07 0.14 0.27 0.17 0.25 0.16 0.35 0.72 0.77 0.39 0.24 0.10 0.11 0.04 0.03 0.12 0.26 0.21 0.08 0.08 0.05 0.00 0.00 0.03 0.03 0.01 0.02 0.02
0.09 0.09 0.09 0.08 0.08 0.07 0.06 0.06 0.11 0.12 0.13 0.17 0.19 0.21 0.22 0.22 0.27 0.50 0.94 0.65 0.51 0.69 0.71 0.19 0.07 0.05 0.06 0.06 0.10 0.16 0.43 0.27 0.55 0.72 0.59 0.54 0.39 0.27 0.22 0.17 0.03 0.06 0.13 0.22 0.17 0.11 0.02 0.00 0.01 0.02 0.01 0.01 0.05 0.26
0.09 0.11 0.12 0.07 0.05 0.05 0.05 0.05 0.05 0.07 0.15 0.18 0.26 0.38 0.35 0.32 0.28 0.51 0.82 0.62 0.97 1.80 1.39 0.56 0.22 0.03 0.02 0.02 0.08 0.34 0.31 0.25 0.24 0.38 0.54 0.69 0.70 0.31 0.20 0.13 0.12 0.08 0.04 0.15 0.21 0.10 0.02 0.00 0.01 0.01 0.05 0.15 0.08 0.04
0.12 0.12 0.09 0.05 0.03 0.03 0.01 0.00 0.04 0.19 0.20 0.32 0.56 0.84 0.54 0.43 0.41 0.54 0.90 0.90 1.16 1.83 1.46 0.55 0.30 0.10 0.02 0.01 0.02 0.10 0.10 0.21 0.47 0.56 0.78 0.75 0.52 0.30 0.34 0.26 0.21 0.12 0.10 0.11 0.18 0.08 0.02 0.01 0.02 0.05 0.03 0.02 0.12 0.24
0.10 0.09 0.08 0.07 0.03 0.01 0.01 0.05 0.20 0.24 0.25 0.51 0.79 0.86 0.52 0.40 0.49 0.70 1.01 1.05 0.75 1.16 1.17 0.41 0.31 0.23 0.03 0.01 0.02 0.02 0.04 0.14 0.39 0.83 0.88 0.58 0.24 0.30 0.29 0.24 0.23 0.04 0.10 0.14 0.08 0.08 0.09 0.08 0.15 0.16 0.26 0.19 0.08 0.09
0.06 0.06 0.07 0.04 0.01 0.02 0.07 0.13 0.20 0.18 0.35 0.63 0.84 0.75 0.35 0.38 0.80 1.49 2.15 1.63 0.92 0.38 1.31 0.78 0.37 0.36 0.18 0.03 0.06 0.12 0.07 0.14 0.47 0.87 1.01 0.45 0.15 0.31 0.61 0.32 0.10 0.04 0.02 0.10 0.11 0.06 0.19 0.34 0.23 0.28 0.27 0.38 0.41 0.34
0.03 0.04 0.03 0.02 0.02 0.04 0.05 0.05 0.11 0.22 0.40 0.59 0.67 0.77 0.50 0.45 1.29 1.85 1.04 0.79 0.66 0.76 2.01 1.20 0.46 0.37 0.35 0.18 0.18 0.31 0.40 0.46 0.68 0.95 0.97 0.63 0.21 0.35 0.67 0.38 0.08 0.18 0.17 0.22 0.23 0.24 0.15 0.41 0.29 0.08 0.13 0.21 0.35 0.36
0.03 0.02 0.01 0.01 0.01 0.02 0.01 0.01 0.03 0.14 0.26 0.43 0.58 0.82 0.97 1.00 1.49 1.26 0.50 0.32 0.46 1.13 1.42 1.01 0.54 0.67 0.56 0.48 0.47 0.40 0.59 0.85 1.02 0.78 0.52 0.50 0.49 0.47 0.51 0.07 0.03 0.12 0.23 0.24 0.25 0.34 0.28 0.21 0.58 0.41 0.21 0.31 0.43 0.25
0.02 0.02 0.01 0.00 0.01 0.01 0.01 0.01 0.00 0.01 0.09 0.18 0.27 0.41 0.50 0.78 1.09 0.83 0.43 0.43 0.47 0.77 0.98 0.61 0.38 0.53 0.65 0.76 0.64 0.63 0.51 0.77 0.74 0.61 0.38 0.34 0.54 0.58 0.15 0.07 0.07 0.07 0.30 0.40 0.39 0.37 0.36 0.25 0.44 0.65 0.36 0.25 0.28 0.27
0.02 0.01 0.01 0.00 0.00 0.01 0.01 0.00 0.00 0.00 0.02 0.06 0.15 0.31 0.48 0.72 0.59 0.42 0.55 0.80 1.00 0.89 0.63 0.39 0.25 0.53 0.62 0.69 0.66 0.83 0.72 0.58 0.53 0.35 0.34 0.40 0.24 0.08 0.08 0.21 0.30 0.32 0.41 0.55 0.61 0.62 0.46 0.37 0.32 0.49 0.32 0.12 0.18 0.36
0.03 0.00 0.02 0.02 0.01 0.01 0.00 0.00 0.00 0.00 0.04 0.12 0.20 0.20 0.27 0.26 0.18 0.27 0.30 0.34 0.36 0.37 0.27 0.30 0.28 0.34 0.40 0.72 0.66 0.52 0.68 0.50 0.38 0.17 0.18 0.22 0.14 0.19 0.16 0.20 0.34 0.51 0.59 0.64 0.90 1.13 0.75 0.45 0.25 0.36 0.32 0.25 0.33 0.52
0.01 0.01 0.00 0.01 0.01 0.00 0.01 0.00 0.00 0.02 0.27 0.33 0.21 0.09 0.10 0.10 0.16 0.23 0.21 0.17 0.19 0.17 0.18 0.19 0.28 0.32 0.42 0.49 0.85 0.89 0.62 0.56 0.40 0.29 0.45 0.27 0.21 0.12 0.17 0.25 0.26 0.41 0.60 0.82 1.12 1.28 0.91 0.47 0.40 0.47 0.50 0.57 0.52 0.56
0.01 0.01 0.00 0.00 0.01 0.00 0.01 0.01 0.00 0.00 0.01 0.17 0.23 0.12 0.06 0.08 0.17 0.16 0.13 0.10 0.15 0.11 0.10 0.20 0.33 0.40 0.40 0.36 0.48 0.52 0.58 0.36 0.31 0.37 0.30 0.25 0.07 0.07 0.16 0.28 0.38 0.42 0.46 0.53 0.61 0.91 0.81 0.74 0.83 0.69 0.69 0.64 0.56 0.55
0.01 0.00 0.00 0.00 0.00 0.00 0.00 0.00 0.00 0.00 0.04 0.33 0.26 0.17 0.06 0.10 0.08 0.10 0.08 0.14 0.14 0.12 0.15 0.15 0.19 0.20 0.20 0.26 0.19 0.22 0.22 0.23 0.25 0.25 0.29 0.09 0.04 0.10 0.18 0.30 0.37 0.47 0.42 0.45 0.63 0.64 0.60 0.55 0.73 0.66 0.47 0.38 0.25 0.25
0.01 0.00 0.00 0.00 0.00 0.00 0.00 0.00 0.00 0.00 0.06 0.11 0.22 0.09 0.08 0.09 0.06 0.05 0.06 0.09 0.11 0.06 0.05 0.07 0.08 0.08 0.12 0.13 0.09 0.12 0.16 0.18 0.19 0.20 0.07 0.09 0.18 0.28 0.39 0.42 0.37 0.34 0.31 0.32 0.36 0.39 0.39 0.29 0.25 0.35 0.27 0.14 0.05 0.03
0.02 0.01 0.00 0.00 0.00 0.00 0.00 0.00 0.00 0.02 0.09 0.08 0.05 0.02 0.01 0.03 0.05 0.04 0.04 0.05 0.03 0.02 0.03 0.05 0.06 0.09 0.07 0.02 0.04 0.04 0.03 0.05 0.05 0.02 0.03 0.09 0.20 0.34 0.39 0.37 0.31 0.26 0.15 0.15 0.12 0.08 0.10 0.06 0.03 0.05 0.03 0.00 0.00 0.00
0.01 0.00 0.00 0.00 0.00 0.00 0.00 0.00 0.05 0.11 0.07 0.04 0.00 0.00 0.02 0.04 0.02 0.03 0.06 0.07 0.03 0.02 0.04 0.06 0.08 0.04 0.02 0.01 0.01 0.03 0.01 0.01 0.01 0.03 0.03 0.06 0.14 0.22 0.20 0.14 0.09 0.05 0.03 0.02 0.01 0.01 0.01 0.00 0.00 0.00 0.00 0.00 0.00 0.00
0.01 0.03 0.01 0.00 0.00 0.00 0.00 0.00 0.07 0.09 0.03 0.00 0.00 0.00 0.01 0.03 0.05 0.07 0.08 0.06 0.07 0.08 0.05 0.04 0.01 0.01 0.01 0.01 0.02 0.01 0.00 0.02 0.02 0.03 0.04 0.07 0.09 0.08 0.03 0.01 0.00 0.00 0.00 0.00 0.00 0.00 0.00 0.00 0.00 0.00 0.00 0.00 0.00 0.00
0.00 0.00 0.00 0.00 0.00 0.00 0.06 0.01 0.02 0.05 0.01 0.00 0.00 0.00 0.01 0.01 0.01 0.00 0.01 0.02 0.01 0.01 0.01 0.00 0.00 0.01 0.02 0.01 0.00 0.00 0.00 0.01 0.02 0.02 0.03 0.04 0.01 0.00 0.00 0.00 0.00 0.00 0.00 0.00 0.00 0.00 0.00 0.00 0.00 0.00 0.00 0.00 0.00 0.00
0.00 0.00 0.00 0.00 0.00 0.01 0.07 0.07 0.01 0.01 0.01 0.00 0.00 0.00 0.00 0.00 0.00 0.00 0.00 0.00 0.00 0.00 0.00 0.00 0.00 0.01 0.00 0.00 0.00 0.00 0.00 0.00 0.00 0.00 0.01 0.00 0.00 0.00 0.00 0.00 0.00 0.00 0.00 0.00 0.00 0.00 0.00 0.00 0.00 0.00 0.00 0.00 0.00 0.00
0.00 0.00 0.00 0.00 0.00 0.01 0.04 0.03 0.04 0.00 0.00 0.00 0.00 0.00 0.01 0.00 0.00 0.00 0.00 0.00 0.00 0.00 0.00 0.00 0.00 0.00 0.00 0.00 0.00 0.00 0.00 0.00 0.00 0.01 0.00 0.00 0.00 0.00 0.00 0.00 0.00 0.00 0.00 0.00 0.00 0.00 0.00 0.00 0.00 0.00 0.00 0.00 0.00 0.00
0.00 0.00 0.00 0.00 0.00 0.01 0.01 0.00 0.01 0.00 0.00 0.00 0.00 0.01 0.01 0.00 0.00 0.00 0.00 0.00 0.00 0.00 0.00 0.00 0.00 0.00 0.00 0.00 0.00 0.00 0.00 0.00 0.00 0.00 0.00 0.00 0.00 0.00 0.00 0.00 0.00 0.00 0.00 0.00 0.00 0.00 0.00 0.00 0.00 0.00 0.01 0.00 0.00 0.00
0.00 0.00 0.00 0.00 0.00 0.02 0.03 0.00 0.00 0.00 0.01 0.01 0.01 0.02 0.01 0.00 0.00 0.00 0.00 0.00 0.00 0.00 0.00 0.00 0.00 0.00 0.00 0.00 0.00 0.00 0.00 0.00 0.00 0.00 0.00 0.00 0.00 0.00 0.00 0.00 0.00 0.00 0.01 0.01 0.00 0.00 0.00 0.00 0.00 0.01 0.00 0.00 0.00 0.00
0.00 0.00 0.01 0.01 0.00 0.00 0.00 0.00 0.00 0.00 0.01 0.01 0.01 0.01 0.00 0.00 0.00 0.00 0.00 0.00 0.00 0.00 0.00 0.00 0.00 0.00 0.00 0.00 0.00 0.00 0.00 0.00 0.00 0.00 0.00 0.00 0.00 0.00 0.00 0.00 0.00 0.00 0.00 0.00 0.00 0.00 0.00 0.00 0.00 0.00 0.00 0.00 0.00 0.00
0.02 0.00 0.00 0.00 0.00 0.00 0.00 0.00 0.00 0.00 0.00 0.00 0.01 0.00 0.00 0.00 0.00 0.00 0.00 0.00 0.00 0.00 0.00 0.00 0.00 0.00 0.00 0.01 0.00 0.00 0.00 0.00 0.00 0.00 0.00 0.00 0.00 0.00 0.00 0.00 0.00 0.00 0.00 0.00 0.01 0.00 0.01 0.00 0.00 0.00 0.00 0.00 0.00 0.00
0.02 0.00 0.00 0.00 0.00 0.00 0.00 0.00 0.00 0.00 0.00 0.00 0.01 0.00 0.00 0.00 0.00 0.00 0.00 0.00 0.00 0.00 0.00 0.00 0.00 0.00 0.00 0.00 0.01 0.00 0.00 0.00 0.00 0.00 0.00 0.00 0.00 0.00 0.00 0.00 0.01 0.02 0.00 0.00 0.00 0.00 0.00 0.00 0.00 0.00 0.00 0.00 0.00 0.00
0.01 0.00 0.00 0.00 0.00 0.00 0.00 0.00 0.00 0.00 0.00 0.00 0.01 0.00 0.00 0.00 0.00 0.00 0.00 0.00 0.00 0.00 0.00 0.00 0.00 0.00 0.00 0.00 0.00 0.00 0.00 0.00 0.00 0.00 0.00 0.00 0.00 0.00 0.00 0.00 0.00 0.00 0.00 0.00 0.00 0.00 0.00 0.00 0.00 0.00 0.00 0.00 0.00 0.00
0.00 0.00 0.00 0.00 0.00 0.00 0.00 0.00 0.00 0.00 0.00 0.00 0.00 0.00 0.00 0.00 0.00 0.00 0.00 0.00 0.00 0.00 0.00 0.00 0.00 0.00 0.00 0.00 0.00 0.00 0.00 0.00 0.00 0.00 0.00 0.00 0.00 0.00 0.00 0.00 0.00 0.00 0.00 0.00 0.00 0.00 0.00 0.00 0.00 0.00 0.00 0.00 0.00 0.00
0.00 0.00 0.00 0.00 0.00 0.00 0.00 0.00 0.00 0.00 0.00 0.00 0.00 0.00 0.00 0.01 0.02 0.01 0.01 0.00 0.00 0.00 0.00 0.00 0.00 0.00 0.00 0.00 0.00 0.00 0.01 0.00 0.00 0.01 0.01 0.01 0.01 0.00 0.00 0.00 0.00 0.00 0.00 0.00 0.00 0.00 0.00 0.00 0.00 0.00 0.00 0.00 0.00 0.00
0.00 0.00 0.01 0.00 0.00 0.01 0.00 0.00 0.00 0.00 0.00 0.00 0.00 0.00 0.00 0.03 0.05 0.02 0.00 0.00 0.00 0.00 0.00 0.01 0.01 0.01 0.01 0.01 0.01 0.02 0.07 0.04 0.00 0.00 0.00 0.00 0.00 0.00 0.00 0.00 0.00 0.00 0.00 0.00 0.00 0.01 0.01 0.01 0.01 0.01 0.00 0.00 0.00 0.00
0.00 0.01 0.01 0.01 0.00 0.01 0.01 0.00 0.01 0.00 0.00 0.00 0.00 0.00 0.01 0.03 0.06 0.03 0.01 0.01 0.01 0.01 0.01 0.01 0.01 0.02 0.04 0.04 0.06 0.06 0.10 0.08 0.02 0.01 0.01 0.00 0.00 0.00 0.00 0.00 0.00 0.00 0.00 0.00 0.00 0.00 0.01 0.01 0.01 0.01 0.01 0.00 0.00 0.00
0.00 0.01 0.01 0.02 0.02 0.02 0.01 0.01 0.01 0.02 0.03 0.03 0.03 0.01 0.03 0.03 0.04 0.05 0.04 0.03 0.03 0.02 0.01 0.01 0.01 0.01 0.02 0.04 0.06 0.09 0.12 0.10 0.03 0.02 0.03 0.01 0.00 0.00 0.00 0.00 0.00 0.00 0.00 0.00 0.00 0.00 0.00 0.00 0.01 0.01 0.00 0.00 0.00 0.00
0.02 0.01 0.03 0.05 0.03 0.02 0.02 0.03 0.02 0.04 0.06 0.07 0.05 0.05 0.05 0.05 0.04 0.06 0.06 0.05 0.05 0.03 0.02 0.02 0.01 0.01 0.01 0.00 0.01 0.04 0.05 0.09 0.12 0.08 0.05 0.04 0.02 0.01 0.01 0.00 0.01 0.01 0.00 0.00 0.01 0.00 0.00 0.01 0.00 0.00 0.00 0.00 0.00 0.00

GFSWCAN_prec_precacc24_267.txt.gz
Total_Precipitation_Accumulation
0.03 0.05 0.07 0.07 0.06 0.05 0.05 0.06 0.06 0.07 0.08 0.08 0.11 0.12 0.12 0.13 0.15 0.36 0.62 0.44 0.44 0.55 0.19 0.01 0.00 0.03 0.05 0.12 0.24 0.17 0.26 0.15 0.34 0.70 0.77 0.39 0.24 0.10 0.13 0.04 0.03 0.13 0.28 0.21 0.09 0.10 0.07 0.00 0.00 0.03 0.03 0.01 0.02 0.02
0.05 0.06 0.07 0.06 0.06 0.06 0.05 0.05 0.05 0.06 0.07 0.08 0.10 0.11 0.14 0.16 0.20 0.39 0.81 0.61 0.49 0.64 0.50 0.04 0.01 0.00 0.04 0.04 0.10 0.16 0.44 0.26 0.54 0.71 0.60 0.56 0.41 0.28 0.23 0.18 0.03 0.06 0.14 0.23 0.18 0.12 0.02 0.00 0.01 0.02 0.01 0.01 0.05 0.26
0.08 0.10 0.10 0.06 0.04 0.03 0.04 0.03 0.03 0.03 0.04 0.06 0.07 0.11 0.16 0.20 0.23 0.40 0.71 0.59 0.90 1.64 1.16 0.28 0.06 0.00 0.00 0.01 0.08 0.34 0.30 0.25 0.24 0.38 0.59 0.73 0.72 0.31 0.21 0.13 0.12 0.08 0.04 0.15 0.21 0.10 0.02 0.00 0.01 0.01 0.05 0.15 0.08 0.04
0.11 0.10 0.08 0.05 0.03 0.02 0.01 0.00 0.03 0.05 0.06 0.08 0.13 0.19 0.23 0.29 0.33 0.50 0.82 0.84 1.03 1.60 1.24 0.27 0.00 0.01 0.01 0.01 0.02 0.10 0.09 0.20 0.47 0.60 0.89 0.77 0.52 0.31 0.35 0.27 0.21 0.12 0.10 0.11 0.17 0.08 0.02 0.01 0.02 0.05 0.03 0.02 0.10 0.22
0.09 0.08 0.07 0.06 0.03 0.03 0.03 0.05 0.11 0.13 0.13 0.19 0.26 0.33 0.35 0.34 0.38 0.60 0.90 0.91 0.57 1.01 1.01 0.17 0.03 0.03 0.01 0.00 0.02 0.02 0.04 0.13 0.36 0.86 0.88 0.49 0.20 0.31 0.29 0.23 0.22 0.04 0.10 0.14 0.08 0.08 0.09 0.07 0.12 0.15 0.24 0.18 0.06 0.07
0.06 0.06 0.08 0.05 0.04 0.05 0.09 0.12 0.13 0.15 0.19 0.33 0.45 0.35 0.22 0.29 0.63 1.31 1.89 1.31 0.67 0.23 1.32 0.71 0.16 0.12 0.05 0.00 0.01 0.04 0.03 0.09 0.43 0.78 0.82 0.32 0.09 0.30 0.64 0.30 0.09 0.04 0.02 0.10 0.10 0.05 0.17 0.31 0.17 0.23 0.22 0.34 0.38 0.32
0.02 0.04 0.03 0.02 0.02 0.04 0.05 0.04 0.09 0.19 0.26 0.38 0.38 0.41 0.30 0.36 1.17 1.69 0.74 0.40 0.34 0.55 1.93 1.12 0.33 0.19 0.12 0.08 0.10 0.19 0.21 0.27 0.45 0.75 0.82 0.51 0.13 0.32 0.68 0.37 0.08 0.18 0.17 0.22 0.24 0.26 0.21 0.43 0.29 0.08 0.13 0.21 0.35 0.36
0.02 0.02 0.01 0.01 0.01 0.02 0.01 0.00 0.02 0.12 0.21 0.33 0.38 0.52 0.72 0.83 1.34 1.09 0.31 0.14 0.25 0.93 1.20 0.89 0.38 0.54 0.45 0.38 0.35 0.33 0.45 0.59 0.76 0.55 0.33 0.35 0.37 0.43 0.54 0.08 0.04 0.14 0.25 0.28 0.26 0.36 0.33 0.26 0.61 0.41 0.21 0.31 0.43 0.25
0.01 0.01 0.01 0.00 0.01 0.01 0.01 0.00 0.00 0.01 0.08 0.17 0.21 0.24 0.33 0.60 0.91 0.69 0.33 0.31 0.36 0.66 0.82 0.50 0.32 0.45 0.59 0.72 0.60 0.60 0.49 0.69 0.62 0.53 0.30 0.30 0.52 0.65 0.17 0.14 0.18 0.16 0.42 0.53 0.52 0.50 0.50 0.40 0.54 0.68 0.36 0.25 0.28 0.27
0.01 0.00 0.00 0.00 0.00 0.01 0.01 0.00 0.00 0.00 0.02 0.06 0.15 0.28 0.37 0.57 0.47 0.37 0.54 0.81 1.03 0.94 0.66 0.36 0.22 0.50 0.61 0.67 0.64 0.82 0.74 0.59 0.53 0.33 0.31 0.41 0.22 0.09 0.13 0.34 0.47 0.48 0.57 0.77 0.92 0.83 0.58 0.52 0.39 0.51 0.32 0.12 0.18 0.36
0.01 0.00 0.00 0.01 0.00 0.00 0.00 0.00 0.00 0.00 0.04 0.12 0.21 0.21 0.28 0.28 0.18 0.27 0.31 0.35 0.37 0.33 0.21 0.23 0.26 0.33 0.39 0.71 0.66 0.53 0.69 0.50 0.40 0.18 0.20 0.22 0.17 0.23 0.22 0.34 0.50 0.69 0.82 0.90 1.12 1.29 0.86 0.56 0.32 0.37 0.32 0.25 0.34 0.54
0.00 0.00 0.00 0.00 0.00 0.00 0.00 0.00 0.00 0.02 0.29 0.40 0.29 0.18 0.16 0.13 0.17 0.25 0.24 0.18 0.19 0.15 0.15 0.16 0.25 0.31 0.42 0.49 0.88 0.92 0.64 0.57 0.41 0.30 0.51 0.32 0.25 0.14 0.27 0.38 0.36 0.55 0.77 0.99 1.26 1.41 0.96 0.51 0.47 0.50 0.51 0.61 0.60 0.61
0.01 0.01 0.00 0.00 0.00 0.00 0.00 0.00 0.00 0.01 0.02 0.25 0.35 0.23 0.09 0.10 0.20 0.17 0.14 0.10 0.14 0.11 0.10 0.20 0.32 0.40 0.41 0.37 0.51 0.54 0.59 0.37 0.31 0.37 0.33 0.29 0.07 0.08 0.22 0.34 0.44 0.50 0.53 0.60 0.72 1.02 0.87 0.83 0.91 0.73 0.78 0.74 0.66 0.69
0.01 0.01 0.01 0.00 0.00 0.00 0.00 0.00 0.01 0.02 0.05 0.44 0.40 0.26 0.07 0.10 0.08 0.09 0.08 0.14 0.14 0.12 0.15 0.15 0.19 0.21 0.22 0.27 0.20 0.23 0.22 0.23 0.25 0.25 0.30 0.09 0.04 0.11 0.20 0.33 0.39 0.50 0.44 0.47 0.68 0.70 0.65 0.60 0.83 0.74 0.55 0.46 0.34 0.40
0.01 0.01 0.01 0.00 0.00 0.00 0.00 0.00 0.02 0.03 0.06 0.15 0.31 0.14 0.06 0.07 0.06 0.05 0.06 0.09 0.11 0.06 0.05 0.07 0.08 0.08 0.13 0.14 0.09 0.12 0.16 0.19 0.19 0.20 0.07 0.09 0.18 0.29 0.39 0.43 0.40 0.38 0.34 0.38 0.42 0.42 0.44 0.33 0.30 0.47 0.43 0.27 0.17 0.17
0.02 0.01 0.00 0.00 0.00 0.00 0.00 0.00 0.04 0.08 0.10 0.08 0.06 0.04 0.02 0.03 0.05 0.04 0.04 0.05 0.03 0.02 0.03 0.05 0.07 0.10 0.07 0.03 0.04 0.04 0.03 0.05 0.05 0.02 0.03 0.09 0.20 0.34 0.40 0.38 0.34 0.30 0.19 0.17 0.15 0.11 0.14 0.09 0.04 0.09 0.09 0.04 0.01 0.00
0.01 0.01 0.02 0.00 0.00 0.00 0.00 0.01 0.12 0.20 0.10 0.05 0.00 0.00 0.02 0.04 0.02 0.03 0.06 0.07 0.03 0.02 0.04 0.07 0.10 0.06 0.02 0.01 0.01 0.03 0.01 0.01 0.01 0.03 0.03 0.06 0.14 0.23 0.20 0.14 0.10 0.06 0.04 0.02 0.01 0.01 0.01 0.00 0.00 0.00 0.00 0.00 0.00 0.00
0.02 0.05 0.05 0.00 0.00 0.00 0.01 0.04 0.14 0.17 0.07 0.00 0.00 0.00 0.01 0.03 0.05 0.07 0.08 0.06 0.07 0.08 0.05 0.05 0.02 0.01 0.01 0.01 0.02 0.01 0.00 0.02 0.02 0.03 0.04 0.08 0.09 0.08 0.03 0.01 0.01 0.00 0.00 0.00 0.00 0.00 0.00 0.00 0.00 0.00 0.00 0.00 0.00 0.00
0.00 0.00 0.01 0.00 0.00 0.01 0.07 0.02 0.04 0.10 0.01 0.00 0.00 0.00 0.01 0.01 0.01 0.00 0.01 0.03 0.02 0.02 0.04 0.01 0.00 0.01 0.02 0.01 0.00 0.00 0.00 0.01 0.02 0.03 0.04 0.04 0.01 0.00 0.00 0.00 0.00 0.00 0.00 0.00 0.00 0.00 0.00 0.00 0.00 0.00 0.00 0.00 0.00 0.00
0.00 0.00 0.00 0.00 0.00 0.03 0.14 0.12 0.01 0.01 0.01 0.00 0.00 0.00 0.00 0.00 0.00 0.00 0.00 0.02 0.01 0.05 0.02 0.00 0.00 0.01 0.00 0.00 0.00 0.00 0.00 0.00 0.00 0.00 0.01 0.00 0.00 0.00 0.00 0.00 0.00 0.00 0.00 0.00 0.00 0.00 0.00 0.00 0.00 0.00 0.00 0.00 0.00 0.00
0.00 0.00 0.00 0.00 0.02 0.05 0.09 0.16 0.11 0.00 0.00 0.00 0.00 0.00 0.01 0.00 0.00 0.00 0.00 0.00 0.01 0.01 0.00 0.00 0.00 0.00 0.00 0.00 0.00 0.00 0.00 0.00 0.00 0.01 0.00 0.00 0.00 0.00 0.00 0.00 0.00 0.00 0.00 0.00 0.00 0.00 0.00 0.00 0.00 0.00 0.00 0.00 0.00 0.00
0.00 0.01 0.00 0.00 0.00 0.03 0.04 0.01 0.07 0.02 0.00 0.00 0.00 0.01 0.01 0.00 0.00 0.00 0.00 0.00 0.00 0.00 0.00 0.00 0.00 0.00 0.00 0.00 0.00 0.00 0.00 0.00 0.00 0.00 0.00 0.00 0.00 0.00 0.00 0.00 0.00 0.00 0.00 0.00 0.00 0.00 0.00 0.00 0.00 0.00 0.01 0.00 0.00 0.00
0.00 0.04 0.01 0.00 0.00 0.03 0.04 0.00 0.02 0.02 0.02 0.01 0.01 0.03 0.02 0.00 0.00 0.00 0.00 0.00 0.00 0.00 0.00 0.00 0.00 0.00 0.00 0.00 0.00 0.00 0.00 0.00 0.00 0.00 0.00 0.00 0.00 0.00 0.00 0.00 0.00 0.00 0.01 0.01 0.00 0.00 0.00 0.00 0.00 0.01 0.00 0.00 0.00 0.01
0.01 0.07 0.03 0.02 0.02 0.01 0.00 0.00 0.00 0.01 0.02 0.02 0.02 0.02 0.00 0.00 0.00 0.00 0.00 0.00 0.00 0.00 0.00 0.00 0.00 0.00 0.00 0.00 0.00 0.00 0.00 0.00 0.00 0.00 0.00 0.00 0.00 0.00 0.00 0.00 0.00 0.00 0.00 0.00 0.00 0.00 0.00 0.00 0.00 0.00 0.00 0.00 0.00 0.00
0.06 0.02 0.01 0.01 0.01 0.01 0.00 0.00 0.00 0.00 0.01 0.01 0.02 0.01 0.00 0.00 0.00 0.00 0.00 0.00 0.00 0.00 0.00 0.00 0.00 0.00 0.00 0.01 0.00 0.00 0.00 0.00 0.00 0.00 0.00 0.00 0.00 0.00 0.00 0.00 0.00 0.00 0.00 0.00 0.01 0.00 0.01 0.00 0.00 0.00 0.00 0.00 0.00 0.00
0.05 0.00 0.00 0.00 0.01 0.01 0.00 0.00 0.00 0.00 0.00 0.00 0.02 0.00 0.00 0.00 0.00 0.00 0.00 0.00 0.00 0.00 0.00 0.00 0.00 0.00 0.00 0.00 0.01 0.00 0.00 0.00 0.00 0.00 0.00 0.00 0.00 0.00 0.00 0.00 0.01 0.02 0.00 0.00 0.00 0.00 0.00 0.00 0.00 0.00 0.00 0.00 0.00 0.00
0.01 0.00 0.00 0.00 0.00 0.00 0.00 0.00 0.00 0.00 0.00 0.00 0.01 0.00 0.00 0.00 0.00 0.00 0.00 0.00 0.00 0.00 0.00 0.00 0.00 0.00 0.00 0.00 0.00 0.00 0.00 0.00 0.00 0.00 0.00 0.00 0.00 0.00 0.00 0.00 0.00 0.00 0.00 0.00 0.00 0.00 0.00 0.00 0.00 0.00 0.00 0.00 0.00 0.00
0.00 0.00 0.00 0.00 0.00 0.00 0.00 0.00 0.00 0.00 0.00 0.00 0.00 0.00 0.00 0.00 0.00 0.00 0.00 0.00 0.00 0.00 0.00 0.00 0.00 0.00 0.00 0.00 0.00 0.00 0.00 0.00 0.00 0.00 0.00 0.00 0.00 0.00 0.00 0.00 0.00 0.00 0.00 0.00 0.00 0.00 0.00 0.00 0.00 0.00 0.00 0.00 0.00 0.00
0.00 0.00 0.00 0.00 0.00 0.00 0.00 0.00 0.00 0.00 0.00 0.00 0.00 0.00 0.00 0.01 0.02 0.01 0.01 0.00 0.00 0.00 0.00 0.00 0.00 0.00 0.00 0.00 0.00 0.00 0.01 0.00 0.00 0.00 0.00 0.00 0.00 0.00 0.00 0.01 0.00 0.00 0.00 0.00 0.00 0.00 0.00 0.00 0.00 0.00 0.00 0.00 0.00 0.00
0.00 0.00 0.01 0.00 0.00 0.01 0.00 0.00 0.00 0.00 0.00 0.00 0.00 0.00 0.00 0.03 0.05 0.02 0.00 0.00 0.00 0.00 0.00 0.01 0.01 0.01 0.01 0.01 0.01 0.01 0.06 0.04 0.00 0.00 0.00 0.00 0.00 0.00 0.00 0.00 0.01 0.00 0.00 0.00 0.01 0.02 0.03 0.02 0.02 0.01 0.00 0.00 0.00 0.00
0.00 0.01 0.01 0.01 0.00 0.01 0.01 0.00 0.01 0.00 0.00 0.00 0.00 0.00 0.01 0.04 0.06 0.03 0.01 0.01 0.01 0.01 0.01 0.01 0.01 0.02 0.04 0.04 0.04 0.05 0.08 0.07 0.01 0.01 0.01 0.00 0.00 0.00 0.00 0.00 0.00 0.00 0.00 0.00 0.00 0.00 0.01 0.02 0.01 0.01 0.01 0.00 0.00 0.00
0.00 0.01 0.01 0.02 0.02 0.02 0.01 0.01 0.01 0.02 0.03 0.03 0.03 0.01 0.03 0.03 0.04 0.05 0.04 0.03 0.03 0.02 0.01 0.01 0.01 0.01 0.02 0.04 0.05 0.07 0.11 0.10 0.02 0.01 0.02 0.01 0.00 0.00 0.00 0.00 0.00 0.01 0.01 0.00 0.00 0.00 0.00 0.00 0.01 0.01 0.00 0.00 0.00 0.00
0.02 0.01 0.03 0.05 0.03 0.02 0.02 0.03 0.02 0.04 0.06 0.07 0.05 0.05 0.05 0.05 0.04 0.06 0.05 0.05 0.05 0.03 0.02 0.02 0.01 0.01 0.01 0.00 0.01 0.01 0.02 0.07 0.11 0.08 0.05 0.05 0.02 0.02 0.01 0.01 0.01 0.02 0.01 0.01 0.01 0.01 0.00 0.01 0.00 0.00 0.00 0.00 0.00 0.00

GFSWCAN_prec_precacc24_273.txt.gz
Total_Precipitation_Accumulation
0.01 0.01 0.01 0.01 0.01 0.01 0.01 0.01 0.02 0.03 0.03 0.03 0.04 0.04 0.05 0.05 0.07 0.15 0.13 0.07 0.15 0.23 0.09 0.01 0.00 0.01 0.03 0.07 0.11 0.06 0.19 0.09 0.13 0.25 0.27 0.15 0.14 0.09 0.13 0.05 0.04 0.15 0.31 0.22 0.09 0.12 0.09 0.00 0.00 0.03 0.04 0.02 0.02 0.02
0.01 0.02 0.02 0.01 0.01 0.01 0.02 0.02 0.02 0.01 0.01 0.02 0.03 0.04 0.05 0.08 0.12 0.26 0.48 0.21 0.08 0.28 0.31 0.02 0.01 0.00 0.00 0.00 0.03 0.06 0.18 0.11 0.29 0.40 0.38 0.45 0.39 0.28 0.23 0.19 0.03 0.06 0.14 0.23 0.19 0.12 0.02 0.00 0.01 0.02 0.01 0.01 0.05 0.26
0.02 0.03 0.03 0.02 0.02 0.02 0.02 0.02 0.01 0.00 0.01 0.01 0.02 0.03 0.04 0.08 0.13 0.29 0.45 0.42 0.53 0.96 0.72 0.18 0.03 0.00 0.00 0.00 0.01 0.17 0.09 0.01 0.03 0.15 0.42 0.62 0.64 0.31 0.21 0.13 0.12 0.08 0.04 0.15 0.21 0.10 0.02 0.00 0.01 0.01 0.05 0.15 0.08 0.04
0.05 0.06 0.06 0.04 0.03 0.02 0.01 0.00 0.02 0.03 0.03 0.02 0.01 0.02 0.03 0.09 0.17 0.36 0.45 0.56 0.88 1.24 0.87 0.16 0.00 0.00 0.00 0.00 0.00 0.01 0.01 0.04 0.11 0.30 0.63 0.64 0.47 0.29 0.36 0.27 0.21 0.12 0.10 0.11 0.18 0.08 0.02 0.01 0.02 0.05 0.03 0.02 0.10 0.22
0.04 0.04 0.05 0.04 0.03 0.03 0.03 0.03 0.05 0.06 0.05 0.05 0.04 0.04 0.05 0.08 0.17 0.35 0.46 0.52 0.48 0.89 0.87 0.16 0.02 0.00 0.00 0.00 0.00 0.00 0.01 0.05 0.14 0.43 0.64 0.37 0.16 0.32 0.31 0.25 0.23 0.04 0.10 0.16 0.14 0.11 0.14 0.13 0.14 0.16 0.25 0.18 0.06 0.07
0.02 0.03 0.04 0.03 0.04 0.05 0.08 0.09 0.05 0.05 0.03 0.02 0.04 0.08 0.12 0.12 0.24 0.66 1.02 0.64 0.47 0.21 1.21 0.62 0.06 0.00 0.00 0.00 0.00 0.00 0.00 0.04 0.20 0.39 0.32 0.16 0.06 0.34 0.73 0.31 0.09 0.04 0.03 0.14 0.30 0.26 0.36 0.44 0.23 0.25 0.25 0.38 0.41 0.34
0.00 0.01 0.00 0.00 0.01 0.02 0.02 0.02 0.01 0.01 0.02 0.03 0.06 0.11 0.14 0.16 0.46 0.83 0.41 0.17 0.21 0.48 1.74 0.85 0.11 0.02 0.01 0.02 0.03 0.06 0.09 0.12 0.20 0.35 0.33 0.15 0.07 0.41 0.80 0.41 0.08 0.19 0.26 0.36 0.38 0.50 0.56 0.58 0.37 0.13 0.19 0.30 0.43 0.44
0.01 0.00 0.00 0.00 0.00 0.01 0.00 0.00 0.00 0.00 0.00 0.02 0.07 0.02 0.11 0.33 0.71 0.76 0.26 0.14 0.22 0.79 0.91 0.54 0.13 0.07 0.10 0.12 0.09 0.10 0.17 0.27 0.41 0.31 0.16 0.11 0.21 0.43 0.58 0.08 0.05 0.21 0.39 0.35 0.29 0.40 0.54 0.52 0.79 0.53 0.30 0.44 0.63 0.41
0.00 0.01 0.00 0.00 0.00 0.00 0.00 0.00 0.00 0.00 0.01 0.01 0.05 0.04 0.12 0.28 0.46 0.26 0.10 0.23 0.28 0.48 0.61 0.26 0.06 0.14 0.21 0.33 0.28 0.28 0.20 0.37 0.28 0.28 0.10 0.23 0.40 0.60 0.15 0.23 0.37 0.36 0.64 0.71 0.57 0.50 0.54 0.63 0.77 0.79 0.46 0.42 0.47 0.43
0.00 0.00 0.00 0.00 0.00 0.00 0.00 0.00 0.00 0.02 0.02 0.03 0.07 0.15 0.14 0.20 0.10 0.08 0.29 0.62 0.82 0.78 0.47 0.17 0.05 0.18 0.26 0.29 0.37 0.47 0.44 0.32 0.35 0.13 0.12 0.32 0.14 0.05 0.13 0.45 0.70 0.74 0.78 0.95 1.08 0.98 0.74 0.62 0.49 0.58 0.39 0.20 0.27 0.42
0.00 0.00 0.00 0.00 0.00 0.00 0.00 0.00 0.00 0.04 0.05 0.11 0.16 0.10 0.15 0.26 0.13 0.18 0.16 0.20 0.18 0.16 0.09 0.03 0.02 0.10 0.16 0.37 0.39 0.34 0.46 0.29 0.30 0.07 0.13 0.14 0.12 0.19 0.22 0.39 0.60 0.81 0.96 1.04 1.31 1.55 1.04 0.60 0.35 0.41 0.35 0.29 0.36 0.54
0.00 0.00 0.00 0.00 0.00 0.00 0.00 0.00 0.01 0.07 0.36 0.47 0.30 0.27 0.31 0.32 0.25 0.24 0.21 0.10 0.10 0.07 0.09 0.08 0.06 0.11 0.20 0.26 0.54 0.60 0.44 0.40 0.24 0.23 0.49 0.29 0.25 0.14 0.26 0.37 0.35 0.57 0.84 1.08 1.38 1.58 1.05 0.55 0.48 0.51 0.52 0.61 0.61 0.64
0.02 0.01 0.01 0.01 0.01 0.00 0.01 0.01 0.02 0.04 0.10 0.36 0.49 0.46 0.25 0.20 0.25 0.16 0.11 0.06 0.07 0.06 0.06 0.16 0.25 0.32 0.33 0.33 0.47 0.40 0.41 0.23 0.18 0.28 0.27 0.27 0.07 0.08 0.19 0.31 0.41 0.48 0.56 0.64 0.79 1.15 0.96 0.93 0.99 0.77 0.82 0.80 0.73 0.81
0.02 0.02 0.02 0.02 0.01 0.01 0.01 0.01 0.04 0.11 0.19 0.60 0.58 0.47 0.14 0.11 0.05 0.05 0.04 0.10 0.10 0.08 0.11 0.13 0.18 0.21 0.23 0.28 0.20 0.23 0.21 0.21 0.24 0.24 0.28 0.08 0.04 0.10 0.19 0.31 0.39 0.50 0.44 0.48 0.73 0.78 0.74 0.69 0.94 0.88 0.69 0.64 0.45 0.50
0.02 0.03 0.02 0.02 0.02 0.02 0.01 0.02 0.07 0.20 0.27 0.31 0.46 0.21 0.05 0.03 0.05 0.03 0.02 0.03 0.05 0.04 0.05 0.07 0.09 0.09 0.14 0.15 0.09 0.13 0.17 0.19 0.19 0.20 0.07 0.09 0.18 0.29 0.39 0.43 0.40 0.38 0.35 0.38 0.43 0.43 0.47 0.36 0.32 0.53 0.57 0.44 0.25 0.26
0.06 0.06 0.02 0.02 0.02 0.03 0.02 0.03 0.21 0.37 0.34 0.20 0.17 0.09 0.02 0.03 0.05 0.04 0.03 0.04 0.03 0.03 0.04 0.05 0.07 0.11 0.08 0.03 0.06 0.04 0.03 0.05 0.05 0.02 0.03 0.09 0.20 0.34 0.40 0.38 0.34 0.31 0.19 0.18 0.16 0.12 0.15 0.09 0.04 0.13 0.15 0.09 0.05 0.03
0.09 0.07 0.07 0.04 0.06 0.03 0.04 0.11 0.40 0.52 0.25 0.15 0.02 0.00 0.02 0.04 0.02 0.03 0.06 0.07 0.03 0.02 0.05 0.07 0.11 0.07 0.03 0.02 0.01 0.03 0.01 0.01 0.01 0.03 0.03 0.06 0.15 0.23 0.20 0.15 0.10 0.06 0.04 0.02 0.01 0.01 0.00 0.00 0.00 0.00 0.00 0.00 0.00 0.00
0.06 0.06 0.09 0.09 0.16 0.15 0.12 0.18 0.39 0.34 0.18 0.02 0.00 0.00 0.01 0.03 0.05 0.07 0.08 0.06 0.07 0.08 0.05 0.05 0.04 0.06 0.02 0.01 0.02 0.01 0.00 0.02 0.02 0.03 0.04 0.08 0.09 0.08 0.03 0.01 0.01 0.00 0.00 0.00 0.00 0.00 0.00 0.00 0.00 0.00 0.00 0.00 0.00 0.00
0.00 0.01 0.03 0.12 0.29 0.26 0.18 0.14 0.22 0.28 0.06 0.00 0.00 0.00 0.01 0.01 0.01 0.00 0.01 0.03 0.02 0.03 0.05 0.03 0.01 0.02 0.02 0.01 0.00 0.00 0.00 0.01 0.02 0.03 0.04 0.04 0.01 0.00 0.00 0.00 0.00 0.00 0.00 0.00 0.00 0.00 0.00 0.00 0.00 0.00 0.00 0.00 0.00 0.00
0.01 0.00 0.01 0.11 0.27 0.31 0.25 0.19 0.05 0.02 0.02 0.00 0.00 0.00 0.00 0.00 0.00 0.00 0.01 0.03 0.02 0.09 0.14 0.05 0.01 0.01 0.00 0.00 0.00 0.00 0.00 0.00 0.00 0.00 0.01 0.00 0.00 0.00 0.00 0.00 0.00 0.00 0.00 0.00 0.00 0.00 0.00 0.00 0.00 0.00 0.00 0.00 0.00 0.00
0.00 0.00 0.00 0.06 0.19 0.25 0.20 0.28 0.21 0.01 0.00 0.00 0.00 0.00 0.01 0.00 0.00 0.00 0.00 0.01 0.03 0.04 0.03 0.02 0.00 0.00 0.00 0.00 0.00 0.00 0.00 0.00 0.00 0.01 0.00 0.00 0.00 0.00 0.00 0.00 0.00 0.00 0.00 0.00 0.00 0.00 0.00 0.00 0.00 0.00 0.00 0.00 0.00 0.00
0.00 0.03 0.06 0.07 0.16 0.15 0.10 0.02 0.17 0.16 0.03 0.00 0.00 0.01 0.01 0.00 0.00 0.00 0.00 0.00 0.01 0.00 0.00 0.00 0.00 0.00 0.00 0.00 0.00 0.00 0.00 0.00 0.00 0.00 0.00 0.00 0.00 0.00 0.00 0.00 0.00 0.00 0.00 0.00 0.00 0.00 0.00 0.00 0.00 0.00 0.01 0.01 0.00 0.00
0.01 0.06 0.12 0.09 0.14 0.16 0.07 0.00 0.02 0.12 0.20 0.09 0.02 0.03 0.02 0.00 0.00 0.00 0.01 0.00 0.00 0.00 0.00 0.00 0.00 0.00 0.00 0.00 0.00 0.00 0.00 0.00 0.00 0.00 0.00 0.00 0.00 0.00 0.00 0.00 0.00 0.00 0.01 0.00 0.00 0.00 0.00 0.00 0.00 0.01 0.01 0.00 0.00 0.01
0.02 0.12 0.16 0.07 0.05 0.04 0.00 0.01 0.01 0.03 0.08 0.18 0.15 0.04 0.00 0.00 0.00 0.00 0.00 0.00 0.00 0.00 0.00 0.00 0.00 0.00 0.00 0.00 0.00 0.00 0.00 0.00 0.00 0.00 0.00 0.00 0.00 0.00 0.00 0.00 0.00 0.00 0.00 0.00 0.00 0.00 0.00 0.00 0.00 0.00 0.00 0.00 0.00 0.00
0.09 0.05 0.11 0.09 0.03 0.02 0.02 0.01 0.01 0.01 0.03 0.05 0.19 0.19 0.04 0.00 0.00 0.00 0.00 0.00 0.00 0.00 0.00 0.00 0.00 0.00 0.00 0.01 0.00 0.00 0.00 0.00 0.00 0.00 0.00 0.00 0.00 0.00 0.00 0.00 0.00 0.00 0.00 0.00 0.01 0.00 0.01 0.00 0.00 0.00 0.00 0.00 0.00 0.00
0.11 0.01 0.04 0.05 0.03 0.02 0.01 0.00 0.00 0.00 0.00 0.01 0.06 0.12 0.16 0.07 0.01 0.00 0.00 0.00 0.00 0.00 0.00 0.00 0.00 0.00 0.00 0.00 0.01 0.00 0.00 0.00 0.00 0.00 0.00 0.00 0.00 0.00 0.00 0.00 0.01 0.02 0.00 0.00 0.00 0.00 0.00 0.00 0.00 0.00 0.00 0.00 0.00 0.00
0.13 0.01 0.00 0.01 0.02 0.03 0.01 0.00 0.00 0.01 0.01 0.01 0.01 0.04 0.11 0.13 0.04 0.00 0.00 0.00 0.00 0.00 0.00 0.00 0.00 0.00 0.00 0.00 0.00 0.00 0.00 0.00 0.00 0.00 0.00 0.00 0.00 0.00 0.00 0.00 0.00 0.00 0.00 0.00 0.00 0.00 0.00 0.00 0.00 0.00 0.00 0.00 0.00 0.00
0.03 0.01 0.00 0.00 0.00 0.02 0.02 0.00 0.00 0.01 0.01 0.00 0.00 0.00 0.03 0.07 0.03 0.00 0.00 0.00 0.00 0.00 0.00 0.00 0.00 0.00 0.00 0.00 0.00 0.00 0.00 0.00 0.00 0.00 0.00 0.00 0.00 0.00 0.00 0.00 0.00 0.00 0.00 0.00 0.00 0.00 0.00 0.00 0.00 0.00 0.00 0.00 0.00 0.00
0.02 0.00 0.00 0.00 0.00 0.00 0.01 0.00 0.00 0.00 0.00 0.00 0.01 0.00 0.00 0.01 0.02 0.01 0.01 0.00 0.00 0.00 0.00 0.00 0.00 0.00 0.00 0.00 0.00 0.00 0.00 0.00 0.00 0.00 0.00 0.00 0.00 0.00 0.01 0.01 0.01 0.00 0.00 0.00 0.00 0.00 0.00 0.00 0.00 0.00 0.00 0.00 0.00 0.00
0.00 0.00 0.01 0.01 0.00 0.01 0.00 0.01 0.01 0.01 0.00 0.01 0.00 0.00 0.00 0.03 0.04 0.02 0.00 0.00 0.00 0.00 0.00 0.01 0.01 0.01 0.01 0.01 0.01 0.01 0.02 0.02 0.00 0.00 0.00 0.00 0.00 0.00 0.00 0.00 0.01 0.00 0.00 0.00 0.00 0.02 0.04 0.04 0.03 0.02 0.01 0.01 0.01 0.00
0.00 0.01 0.01 0.01 0.00 0.01 0.01 0.00 0.01 0.01 0.02 0.02 0.01 0.01 0.01 0.03 0.05 0.03 0.01 0.01 0.01 0.01 0.01 0.01 0.01 0.01 0.03 0.03 0.02 0.03 0.07 0.06 0.01 0.01 0.01 0.00 0.00 0.00 0.00 0.00 0.00 0.00 0.00 0.00 0.00 0.01 0.02 0.03 0.02 0.01 0.01 0.01 0.00 0.00
0.00 0.01 0.01 0.01 0.02 0.01 0.01 0.01 0.02 0.04 0.05 0.07 0.07 0.03 0.03 0.03 0.03 0.04 0.03 0.03 0.03 0.02 0.01 0.01 0.01 0.01 0.02 0.04 0.04 0.04 0.06 0.06 0.01 0.01 0.00 0.00 0.00 0.00 0.00 0.00 0.00 0.01 0.01 0.01 0.01 0.01 0.01 0.01 0.01 0.01 0.01 0.00 0.00 0.00
0.02 0.01 0.03 0.05 0.03 0.02 0.02 0.03 0.03 0.05 0.07 0.09 0.09 0.10 0.08 0.05 0.03 0.04 0.04 0.04 0.03 0.01 0.01 0.01 0.01 0.01 0.01 0.00 0.01 0.01 0.02 0.03 0.04 0.03 0.02 0.01 0.02 0.02 0.01 0.01 0.01 0.02 0.02 0.02 0.03 0.02 0.03 0.02 0.01 0.01 0.01 0.00 0.00 0.00

GFSWCAN_prec_precacc24_279.txt.gz
Total_Precipitation_Accumulation
0.00 0.01 0.00 0.00 0.00 0.00 0.00 0.00 0.00 0.01 0.00 0.00 0.00 0.00 0.01 0.01 0.02 0.07 0.04 0.02 0.06 0.07 0.03 0.00 0.00 0.00 0.01 0.04 0.05 0.03 0.13 0.06 0.08 0.16 0.14 0.08 0.07 0.02 0.04 0.01 0.01 0.02 0.06 0.03 0.03 0.09 0.07 0.00 0.00 0.04 0.05 0.04 0.03 0.02
0.01 0.00 0.00 0.00 0.01 0.01 0.01 0.01 0.01 0.01 0.00 0.01 0.01 0.01 0.02 0.03 0.05 0.12 0.15 0.07 0.03 0.18 0.23 0.02 0.01 0.00 0.00 0.00 0.01 0.02 0.11 0.07 0.23 0.32 0.31 0.38 0.31 0.17 0.11 0.09 0.00 0.02 0.02 0.03 0.06 0.07 0.01 0.00 0.01 0.02 0.02 0.03 0.07 0.27
0.00 0.01 0.01 0.01 0.01 0.02 0.01 0.01 0.01 0.00 0.00 0.00 0.00 0.01 0.02 0.05 0.08 0.15 0.09 0.09 0.28 0.57 0.44 0.13 0.03 0.00 0.00 0.00 0.00 0.12 0.07 0.00 0.01 0.06 0.23 0.32 0.34 0.12 0.09 0.04 0.02 0.01 0.01 0.04 0.05 0.01 0.01 0.00 0.01 0.01 0.06 0.18 0.12 0.09
0.02 0.02 0.03 0.03 0.02 0.01 0.01 0.00 0.01 0.01 0.00 0.01 0.00 0.01 0.01 0.05 0.11 0.25 0.24 0.14 0.41 0.73 0.51 0.07 0.00 0.00 0.00 0.00 0.00 0.00 0.01 0.01 0.03 0.12 0.36 0.37 0.19 0.05 0.04 0.01 0.02 0.01 0.01 0.01 0.03 0.00 0.04 0.02 0.01 0.06 0.06 0.07 0.16 0.28
0.03 0.03 0.02 0.02 0.02 0.02 0.02 0.02 0.03 0.03 0.03 0.04 0.04 0.03 0.03 0.06 0.12 0.18 0.22 0.19 0.21 0.59 0.58 0.10 0.01 0.00 0.00 0.00 0.00 0.00 0.00 0.02 0.05 0.28 0.39 0.21 0.07 0.12 0.08 0.07 0.03 0.00 0.00 0.07 0.17 0.09 0.25 0.17 0.14 0.16 0.33 0.29 0.13 0.16
0.02 0.02 0.02 0.02 0.03 0.03 0.03 0.03 0.01 0.01 0.01 0.01 0.02 0.05 0.08 0.05 0.07 0.25 0.34 0.12 0.12 0.16 0.93 0.45 0.03 0.00 0.00 0.00 0.00 0.00 0.00 0.01 0.11 0.26 0.19 0.09 0.02 0.19 0.45 0.15 0.01 0.00 0.00 0.07 0.36 0.31 0.26 0.30 0.22 0.25 0.32 0.47 0.47 0.44
0.00 0.00 0.00 0.00 0.00 0.01 0.01 0.02 0.01 0.01 0.02 0.02 0.02 0.04 0.10 0.08 0.09 0.19 0.15 0.04 0.07 0.33 1.13 0.56 0.07 0.00 0.00 0.00 0.01 0.02 0.02 0.05 0.10 0.21 0.20 0.07 0.03 0.33 0.63 0.29 0.00 0.01 0.09 0.15 0.18 0.30 0.47 0.49 0.40 0.15 0.23 0.35 0.47 0.49
0.00 0.00 0.00 0.00 0.00 0.00 0.01 0.01 0.00 0.00 0.00 0.02 0.04 0.02 0.03 0.12 0.16 0.14 0.10 0.12 0.18 0.54 0.58 0.35 0.06 0.03 0.01 0.02 0.04 0.06 0.10 0.14 0.23 0.18 0.10 0.07 0.10 0.28 0.42 0.05 0.03 0.09 0.17 0.13 0.10 0.21 0.46 0.52 0.82 0.54 0.32 0.45 0.63 0.42
0.00 0.00 0.00 0.00 0.00 0.00 0.00 0.00 0.00 0.00 0.01 0.02 0.06 0.04 0.10 0.10 0.12 0.06 0.05 0.20 0.29 0.38 0.47 0.19 0.02 0.04 0.06 0.07 0.08 0.07 0.10 0.21 0.18 0.18 0.05 0.15 0.20 0.32 0.06 0.18 0.34 0.32 0.44 0.48 0.44 0.47 0.54 0.63 0.77 0.79 0.45 0.41 0.47 0.50
0.01 0.00 0.00 0.00 0.00 0.00 0.00 0.00 0.00 0.02 0.02 0.04 0.10 0.16 0.12 0.08 0.04 0.05 0.13 0.35 0.53 0.62 0.42 0.15 0.01 0.05 0.04 0.05 0.07 0.10 0.17 0.17 0.20 0.07 0.06 0.23 0.08 0.03 0.11 0.35 0.53 0.58 0.65 0.82 1.01 0.96 0.76 0.61 0.48 0.57 0.39 0.20 0.28 0.45
0.02 0.00 0.00 0.00 0.00 0.00 0.00 0.00 0.00 0.04 0.05 0.12 0.19 0.09 0.15 0.22 0.15 0.16 0.12 0.15 0.14 0.14 0.10 0.03 0.00 0.03 0.02 0.05 0.09 0.14 0.17 0.14 0.18 0.04 0.09 0.07 0.10 0.19 0.22 0.37 0.42 0.52 0.79 1.02 1.32 1.55 1.05 0.61 0.35 0.38 0.32 0.27 0.35 0.54
0.01 0.01 0.00 0.00 0.00 0.00 0.00 0.00 0.01 0.06 0.37 0.51 0.33 0.29 0.35 0.38 0.28 0.16 0.19 0.06 0.06 0.01 0.02 0.03 0.04 0.05 0.12 0.09 0.22 0.26 0.22 0.22 0.14 0.17 0.41 0.25 0.25 0.14 0.26 0.37 0.33 0.48 0.68 0.96 1.33 1.57 1.06 0.56 0.50 0.49 0.50 0.63 0.65 0.69
0.02 0.02 0.01 0.01 0.01 0.00 0.01 0.01 0.02 0.04 0.11 0.41 0.54 0.49 0.32 0.21 0.25 0.13 0.07 0.03 0.02 0.03 0.02 0.04 0.08 0.12 0.17 0.20 0.32 0.22 0.20 0.08 0.08 0.16 0.19 0.26 0.06 0.07 0.18 0.30 0.39 0.43 0.44 0.49 0.69 1.09 0.94 0.92 0.99 0.78 0.83 0.84 0.78 0.84
0.02 0.02 0.02 0.02 0.01 0.01 0.01 0.02 0.05 0.13 0.20 0.66 0.67 0.46 0.16 0.12 0.02 0.03 0.03 0.08 0.08 0.07 0.07 0.03 0.07 0.10 0.14 0.16 0.12 0.11 0.06 0.07 0.10 0.14 0.23 0.06 0.02 0.07 0.14 0.28 0.35 0.42 0.34 0.34 0.55 0.68 0.70 0.68 0.93 0.87 0.69 0.65 0.46 0.52
0.03 0.03 0.03 0.03 0.03 0.03 0.02 0.02 0.11 0.25 0.30 0.39 0.55 0.23 0.05 0.02 0.03 0.01 0.00 0.00 0.00 0.00 0.01 0.05 0.08 0.08 0.12 0.12 0.07 0.10 0.12 0.12 0.14 0.16 0.06 0.05 0.06 0.10 0.17 0.25 0.29 0.30 0.30 0.36 0.40 0.41 0.46 0.35 0.31 0.53 0.58 0.45 0.25 0.27
0.09 0.11 0.04 0.02 0.03 0.07 0.06 0.07 0.28 0.49 0.43 0.27 0.25 0.11 0.03 0.01 0.01 0.01 0.00 0.01 0.01 0.02 0.05 0.07 0.09 0.13 0.09 0.04 0.07 0.05 0.04 0.05 0.05 0.02 0.03 0.05 0.10 0.17 0.25 0.28 0.27 0.26 0.18 0.18 0.16 0.12 0.15 0.09 0.04 0.13 0.15 0.10 0.06 0.03
0.15 0.15 0.07 0.05 0.08 0.08 0.19 0.30 0.60 0.71 0.37 0.19 0.04 0.00 0.02 0.03 0.01 0.02 0.04 0.05 0.04 0.04 0.08 0.11 0.12 0.07 0.05 0.04 0.03 0.03 0.01 0.01 0.03 0.02 0.02 0.05 0.11 0.17 0.16 0.13 0.09 0.06 0.03 0.02 0.01 0.01 0.00 0.00 0.00 0.00 0.00 0.00 0.00 0.00
0.12 0.15 0.15 0.19 0.29 0.37 0.49 0.56 0.59 0.46 0.25 0.03 0.01 0.00 0.01 0.03 0.05 0.09 0.09 0.07 0.07 0.07 0.09 0.09 0.05 0.07 0.02 0.01 0.02 0.01 0.01 0.01 0.01 0.02 0.04 0.07 0.08 0.07 0.02 0.01 0.01 0.00 0.00 0.00 0.00 0.00 0.00 0.00 0.00 0.00 0.00 0.00 0.00 0.00
0.04 0.04 0.13 0.35 0.66 0.62 0.61 0.49 0.34 0.36 0.07 0.01 0.00 0.00 0.01 0.01 0.02 0.02 0.04 0.04 0.05 0.07 0.11 0.08 0.04 0.03 0.02 0.01 0.03 0.07 0.04 0.03 0.02 0.02 0.03 0.04 0.01 0.00 0.00 0.00 0.00 0.00 0.00 0.00 0.00 0.00 0.00 0.00 0.00 0.00 0.00 0.00 0.00 0.00
0.06 0.05 0.03 0.23 0.58 0.63 0.51 0.41 0.12 0.04 0.03 0.03 0.01 0.01 0.00 0.00 0.01 0.03 0.03 0.06 0.11 0.24 0.33 0.14 0.02 0.01 0.01 0.03 0.01 0.02 0.03 0.02 0.00 0.00 0.01 0.00 0.00 0.00 0.00 0.00 0.00 0.00 0.00 0.00 0.00 0.00 0.00 0.00 0.00 0.00 0.00 0.00 0.00 0.00
0.02 0.03 0.05 0.17 0.40 0.44 0.36 0.48 0.35 0.02 0.00 0.01 0.02 0.04 0.03 0.01 0.01 0.01 0.02 0.02 0.11 0.22 0.14 0.04 0.00 0.00 0.00 0.01 0.00 0.00 0.00 0.00 0.00 0.00 0.00 0.00 0.00 0.00 0.00 0.00 0.00 0.00 0.00 0.00 0.00 0.00 0.00 0.00 0.00 0.00 0.00 0.00 0.00 0.00
0.06 0.06 0.13 0.16 0.25 0.23 0.18 0.05 0.30 0.30 0.07 0.01 0.00 0.03 0.05 0.04 0.02 0.00 0.01 0.03 0.03 0.01 0.00 0.00 0.00 0.00 0.00 0.00 0.00 0.00 0.00 0.00 0.00 0.00 0.00 0.00 0.00 0.00 0.00 0.00 0.00 0.00 0.00 0.00 0.00 0.00 0.00 0.00 0.00 0.00 0.00 0.00 0.00 0.00
0.18 0.16 0.15 0.23 0.30 0.26 0.12 0.01 0.05 0.20 0.34 0.18 0.03 0.03 0.02 0.00 0.01 0.03 0.05 0.01 0.00 0.00 0.00 0.00 0.00 0.00 0.00 0.00 0.00 0.00 0.00 0.00 0.00 0.00 0.00 0.00 0.00 0.00 0.00 0.00 0.00 0.00 0.00 0.00 0.00 0.00 0.00 0.00 0.00 0.00 0.00 0.00 0.00 0.00
0.28 0.29 0.19 0.16 0.15 0.11 0.05 0.04 0.02 0.05 0.11 0.27 0.34 0.19 0.03 0.00 0.00 0.01 0.01 0.00 0.00 0.00 0.00 0.00 0.00 0.00 0.00 0.00 0.00 0.00 0.00 0.00 0.00 0.00 0.00 0.00 0.00 0.00 0.00 0.00 0.00 0.00 0.00 0.00 0.00 0.00 0.00 0.00 0.00 0.00 0.00 0.00 0.00 0.00
0.40 0.18 0.14 0.13 0.12 0.10 0.07 0.06 0.03 0.02 0.04 0.05 0.23 0.32 0.32 0.21 0.13 0.05 0.00 0.00 0.00 0.00 0.00 0.00 0.00 0.00 0.00 0.01 0.00 0.00 0.00 0.00 0.00 0.00 0.00 0.00 0.00 0.00 0.00 0.00 0.00 0.00 0.00 0.00 0.00 0.00 0.00 0.00 0.00 0.00 0.00 0.00 0.00 0.00
0.30 0.05 0.05 0.05 0.05 0.05 0.03 0.02 0.03 0.02 0.01 0.02 0.07 0.12 0.20 0.23 0.17 0.08 0.01 0.00 0.00 0.00 0.00 0.00 0.00 0.00 0.00 0.00 0.01 0.00 0.00 0.00 0.00 0.00 0.00 0.00 0.00 0.00 0.00 0.00 0.00 0.01 0.00 0.00 0.00 0.00 0.00 0.00 0.00 0.00 0.00 0.00 0.00 0.00
0.22 0.05 0.00 0.01 0.04 0.05 0.03 0.01 0.01 0.01 0.02 0.03 0.02 0.05 0.18 0.26 0.18 0.04 0.02 0.00 0.00 0.00 0.00 0.00 0.00 0.00 0.00 0.00 0.00 0.00 0.00 0.00 0.00 0.00 0.00 0.00 0.00 0.00 0.00 0.00 0.00 0.00 0.00 0.00 0.00 0.00 0.00 0.00 0.00 0.00 0.00 0.00 0.00 0.00
0.12 0.05 0.02 0.00 0.01 0.05 0.06 0.03 0.04 0.03 0.01 0.00 0.01 0.02 0.10 0.11 0.05 0.01 0.00 0.00 0.00 0.00 0.00 0.00 0.00 0.00 0.00 0.01 0.00 0.00 0.00 0.00 0.00 0.00 0.00 0.00 0.00 0.00 0.00 0.00 0.00 0.00 0.00 0.00 0.00 0.00 0.00 0.00 0.00 0.00 0.00 0.00 0.00 0.00
0.06 0.03 0.05 0.04 0.02 0.02 0.04 0.05 0.06 0.03 0.03 0.04 0.04 0.02 0.01 0.01 0.01 0.01 0.01 0.00 0.00 0.00 0.00 0.00 0.00 0.00 0.00 0.00 0.00 0.00 0.00 0.00 0.00 0.00 0.00 0.00 0.00 0.00 0.01 0.01 0.01 0.00 0.00 0.00 0.00 0.00 0.00 0.00 0.00 0.00 0.00 0.00 0.00 0.00
0.00 0.02 0.05 0.05 0.05 0.05 0.03 0.02 0.04 0.05 0.05 0.05 0.08 0.06 0.02 0.02 0.03 0.01 0.00 0.00 0.00 0.00 0.00 0.00 0.00 0.00 0.00 0.00 0.00 0.00 0.01 0.01 0.00 0.00 0.00 0.00 0.00 0.00 0.00 0.00 0.01 0.00 0.00 0.00 0.00 0.02 0.04 0.03 0.03 0.02 0.01 0.01 0.01 0.01
0.01 0.01 0.01 0.01 0.01 0.02 0.03 0.03 0.03 0.03 0.04 0.03 0.02 0.01 0.01 0.02 0.04 0.02 0.00 0.00 0.00 0.01 0.00 0.01 0.00 0.00 0.01 0.01 0.01 0.01 0.01 0.00 0.01 0.01 0.01 0.00 0.00 0.00 0.00 0.00 0.00 0.00 0.00 0.00 0.00 0.01 0.02 0.03 0.02 0.01 0.01 0.01 0.00 0.00
0.02 0.02 0.02 0.01 0.02 0.01 0.01 0.01 0.02 0.04 0.04 0.05 0.06 0.03 0.02 0.01 0.02 0.02 0.02 0.02 0.02 0.01 0.01 0.00 0.00 0.01 0.01 0.02 0.02 0.01 0.02 0.01 0.00 0.01 0.00 0.00 0.00 0.00 0.00 0.00 0.00 0.01 0.01 0.01 0.01 0.01 0.01 0.01 0.01 0.01 0.01 0.00 0.00 0.00
0.04 0.03 0.04 0.06 0.04 0.02 0.01 0.03 0.03 0.04 0.04 0.07 0.06 0.07 0.08 0.06 0.02 0.02 0.03 0.03 0.02 0.01 0.00 0.00 0.00 0.00 0.00 0.00 0.00 0.01 0.01 0.01 0.02 0.02 0.02 0.02 0.02 0.02 0.01 0.01 0.01 0.02 0.02 0.02 0.03 0.02 0.03 0.03 0.02 0.01 0.01 0.00 0.00 0.00

GFSWCAN_prec_precacc24_282.txt.gz
Total_Precipitation_Accumulation
0.00 0.00 0.00 0.00 0.00 0.00 0.00 0.00 0.00 0.01 0.00 0.00 0.00 0.00 0.00 0.00 0.01 0.04 0.01 0.00 0.02 0.03 0.02 0.00 0.00 0.00 0.00 0.00 0.00 0.00 0.05 0.03 0.04 0.06 0.07 0.05 0.05 0.02 0.03 0.01 0.01 0.02 0.05 0.02 0.02 0.07 0.05 0.00 0.00 0.03 0.03 0.04 0.02 0.01
0.00 0.00 0.00 0.00 0.00 0.00 0.00 0.00 0.00 0.00 0.00 0.00 0.00 0.00 0.01 0.02 0.03 0.08 0.06 0.01 0.01 0.12 0.15 0.01 0.00 0.00 0.00 0.00 0.00 0.00 0.04 0.03 0.13 0.21 0.23 0.30 0.24 0.15 0.08 0.07 0.00 0.01 0.02 0.02 0.04 0.02 0.00 0.00 0.00 0.00 0.01 0.02 0.03 0.03
0.00 0.01 0.01 0.01 0.00 0.01 0.00 0.00 0.00 0.00 0.00 0.00 0.00 0.01 0.02 0.04 0.07 0.13 0.06 0.04 0.15 0.34 0.23 0.06 0.02 0.00 0.00 0.00 0.00 0.08 0.06 0.00 0.00 0.02 0.14 0.20 0.22 0.07 0.06 0.02 0.01 0.00 0.00 0.02 0.03 0.00 0.00 0.00 0.00 0.00 0.01 0.03 0.04 0.07
0.01 0.01 0.01 0.01 0.01 0.01 0.01 0.00 0.00 0.01 0.00 0.01 0.00 0.00 0.01 0.04 0.09 0.20 0.14 0.06 0.20 0.44 0.29 0.03 0.00 0.00 0.00 0.00 0.00 0.00 0.01 0.00 0.01 0.08 0.28 0.25 0.13 0.03 0.03 0.01 0.01 0.00 0.00 0.00 0.01 0.00 0.04 0.02 0.00 0.01 0.03 0.05 0.08 0.18
0.02 0.02 0.02 0.02 0.02 0.02 0.02 0.02 0.02 0.02 0.02 0.03 0.03 0.03 0.03 0.05 0.11 0.16 0.18 0.11 0.11 0.42 0.41 0.08 0.01 0.00 0.00 0.00 0.00 0.00 0.00 0.00 0.02 0.23 0.31 0.14 0.03 0.08 0.06 0.05 0.02 0.00 0.00 0.07 0.17 0.09 0.24 0.15 0.03 0.02 0.08 0.11 0.08 0.13
0.01 0.02 0.02 0.02 0.03 0.03 0.03 0.02 0.01 0.01 0.01 0.01 0.02 0.05 0.08 0.05 0.05 0.15 0.20 0.05 0.03 0.12 0.76 0.34 0.02 0.00 0.00 0.00 0.00 0.00 0.00 0.00 0.06 0.20 0.14 0.05 0.01 0.15 0.35 0.09 0.00 0.00 0.00 0.07 0.36 0.31 0.24 0.15 0.05 0.02 0.10 0.13 0.11 0.21
0.00 0.00 0.00 0.00 0.00 0.01 0.01 0.02 0.01 0.00 0.01 0.02 0.02 0.04 0.10 0.08 0.07 0.06 0.06 0.03 0.03 0.23 0.74 0.37 0.04 0.00 0.00 0.00 0.00 0.00 0.00 0.02 0.05 0.15 0.16 0.04 0.02 0.30 0.56 0.25 0.00 0.01 0.09 0.15 0.18 0.30 0.46 0.19 0.12 0.08 0.11 0.15 0.23 0.40
0.00 0.00 0.00 0.00 0.00 0.00 0.01 0.01 0.00 0.00 0.00 0.02 0.04 0.02 0.03 0.10 0.11 0.07 0.03 0.04 0.13 0.35 0.34 0.20 0.03 0.01 0.00 0.00 0.01 0.01 0.04 0.07 0.16 0.15 0.08 0.05 0.09 0.26 0.39 0.04 0.03 0.09 0.17 0.11 0.04 0.06 0.29 0.34 0.26 0.15 0.14 0.23 0.55 0.42
0.00 0.00 0.00 0.00 0.00 0.00 0.00 0.00 0.00 0.00 0.01 0.02 0.06 0.04 0.09 0.09 0.09 0.06 0.02 0.10 0.25 0.34 0.38 0.14 0.02 0.03 0.03 0.05 0.04 0.03 0.06 0.16 0.16 0.17 0.04 0.14 0.19 0.31 0.06 0.17 0.33 0.31 0.41 0.41 0.24 0.15 0.19 0.40 0.35 0.17 0.18 0.34 0.47 0.51
0.01 0.00 0.00 0.00 0.00 0.00 0.00 0.00 0.00 0.02 0.02 0.04 0.10 0.14 0.11 0.08 0.03 0.04 0.08 0.25 0.41 0.54 0.39 0.14 0.00 0.02 0.03 0.05 0.06 0.06 0.10 0.11 0.16 0.05 0.06 0.21 0.07 0.03 0.11 0.35 0.53 0.57 0.57 0.60 0.66 0.50 0.39 0.36 0.24 0.28 0.28 0.21 0.28 0.45
0.03 0.00 0.00 0.00 0.00 0.00 0.00 0.00 0.00 0.04 0.05 0.11 0.16 0.10 0.16 0.22 0.15 0.16 0.12 0.13 0.13 0.11 0.09 0.03 0.00 0.02 0.02 0.05 0.07 0.10 0.08 0.08 0.15 0.04 0.10 0.08 0.10 0.19 0.21 0.37 0.42 0.50 0.67 0.75 0.80 0.95 0.74 0.46 0.28 0.34 0.29 0.26 0.33 0.52
0.02 0.02 0.00 0.00 0.00 0.00 0.00 0.00 0.01 0.06 0.34 0.49 0.31 0.29 0.35 0.37 0.27 0.15 0.16 0.06 0.05 0.01 0.00 0.01 0.01 0.03 0.05 0.07 0.18 0.17 0.14 0.10 0.08 0.11 0.35 0.24 0.23 0.13 0.26 0.36 0.32 0.45 0.58 0.66 0.84 1.19 0.88 0.48 0.44 0.45 0.39 0.51 0.56 0.64
0.07 0.04 0.01 0.01 0.01 0.00 0.01 0.01 0.02 0.04 0.11 0.40 0.52 0.49 0.31 0.21 0.24 0.12 0.05 0.02 0.01 0.02 0.01 0.01 0.02 0.04 0.08 0.13 0.25 0.18 0.14 0.05 0.06 0.13 0.16 0.22 0.05 0.07 0.15 0.24 0.33 0.34 0.36 0.37 0.50 0.84 0.81 0.86 0.93 0.73 0.75 0.76 0.72 0.83
0.08 0.06 0.03 0.02 0.01 0.01 0.01 0.02 0.05 0.13 0.19 0.61 0.66 0.44 0.15 0.11 0.01 0.01 0.01 0.04 0.04 0.05 0.05 0.02 0.04 0.06 0.10 0.11 0.08 0.07 0.05 0.06 0.08 0.12 0.19 0.05 0.02 0.06 0.10 0.18 0.24 0.28 0.24 0.23 0.37 0.48 0.53 0.54 0.81 0.80 0.65 0.63 0.45 0.52
0.04 0.04 0.03 0.03 0.04 0.03 0.02 0.02 0.11 0.26 0.28 0.35 0.52 0.21 0.04 0.01 0.02 0.03 0.02 0.03 0.02 0.00 0.00 0.04 0.05 0.06 0.09 0.09 0.05 0.07 0.10 0.09 0.11 0.11 0.06 0.04 0.02 0.04 0.07 0.12 0.14 0.14 0.13 0.22 0.26 0.25 0.31 0.26 0.26 0.48 0.55 0.44 0.25 0.27
0.09 0.11 0.04 0.03 0.03 0.07 0.07 0.09 0.29 0.52 0.43 0.25 0.24 0.11 0.02 0.01 0.01 0.02 0.01 0.03 0.04 0.03 0.05 0.06 0.08 0.12 0.09 0.04 0.07 0.05 0.03 0.04 0.04 0.03 0.04 0.01 0.02 0.05 0.10 0.12 0.15 0.16 0.12 0.13 0.13 0.10 0.13 0.08 0.04 0.13 0.15 0.10 0.06 0.03
0.15 0.16 0.08 0.05 0.08 0.09 0.22 0.40 0.71 0.81 0.44 0.20 0.04 0.00 0.01 0.02 0.02 0.02 0.02 0.03 0.07 0.06 0.07 0.11 0.13 0.08 0.06 0.05 0.03 0.03 0.01 0.02 0.09 0.04 0.02 0.03 0.04 0.07 0.07 0.06 0.06 0.04 0.03 0.01 0.01 0.00 0.00 0.00 0.00 0.00 0.00 0.00 0.00 0.00
0.12 0.17 0.15 0.19 0.30 0.42 0.64 0.73 0.76 0.55 0.29 0.03 0.01 0.00 0.00 0.02 0.04 0.07 0.10 0.10 0.10 0.07 0.09 0.12 0.09 0.09 0.03 0.01 0.01 0.01 0.01 0.03 0.03 0.02 0.03 0.04 0.03 0.02 0.01 0.00 0.00 0.00 0.00 0.00 0.00 0.00 0.00 0.00 0.00 0.00 0.00 0.00 0.00 0.00
0.06 0.10 0.15 0.36 0.70 0.77 0.73 0.62 0.46 0.45 0.08 0.01 0.00 0.00 0.00 0.01 0.02 0.02 0.07 0.12 0.12 0.13 0.17 0.14 0.10 0.04 0.01 0.00 0.04 0.09 0.08 0.08 0.02 0.02 0.03 0.02 0.00 0.00 0.00 0.00 0.00 0.00 0.00 0.00 0.00 0.00 0.00 0.00 0.00 0.00 0.00 0.00 0.00 0.00
0.06 0.05 0.05 0.25 0.69 0.85 0.70 0.49 0.17 0.06 0.04 0.04 0.01 0.00 0.00 0.00 0.01 0.04 0.05 0.10 0.14 0.35 0.45 0.17 0.04 0.01 0.02 0.05 0.04 0.05 0.06 0.06 0.01 0.00 0.01 0.00 0.00 0.00 0.00 0.00 0.00 0.00 0.00 0.00 0.00 0.00 0.00 0.00 0.00 0.00 0.00 0.00 0.00 0.00
0.03 0.04 0.06 0.20 0.45 0.53 0.47 0.54 0.42 0.06 0.01 0.01 0.03 0.05 0.04 0.01 0.01 0.02 0.03 0.04 0.15 0.29 0.24 0.05 0.01 0.01 0.02 0.06 0.03 0.03 0.03 0.02 0.01 0.00 0.00 0.00 0.00 0.00 0.00 0.00 0.00 0.00 0.00 0.00 0.00 0.00 0.00 0.00 0.00 0.00 0.00 0.00 0.00 0.00
0.09 0.09 0.19 0.21 0.32 0.30 0.21 0.06 0.31 0.34 0.10 0.02 0.01 0.03 0.06 0.06 0.04 0.00 0.01 0.06 0.04 0.02 0.01 0.00 0.01 0.01 0.03 0.03 0.03 0.01 0.02 0.01 0.01 0.00 0.00 0.00 0.00 0.00 0.00 0.00 0.00 0.00 0.00 0.00 0.00 0.00 0.00 0.00 0.00 0.00 0.00 0.00 0.00 0.00
0.19 0.21 0.25 0.31 0.33 0.28 0.13 0.01 0.05 0.20 0.39 0.22 0.05 0.04 0.02 0.00 0.02 0.05 0.11 0.02 0.00 0.00 0.00 0.00 0.00 0.00 0.00 0.01 0.03 0.02 0.01 0.00 0.00 0.00 0.00 0.00 0.00 0.00 0.00 0.00 0.00 0.00 0.00 0.00 0.00 0.00 0.00 0.00 0.00 0.00 0.00 0.00 0.00 0.00
0.30 0.37 0.31 0.21 0.16 0.12 0.06 0.04 0.02 0.05 0.11 0.29 0.41 0.28 0.06 0.02 0.01 0.02 0.05 0.02 0.01 0.00 0.00 0.00 0.00 0.00 0.00 0.00 0.00 0.00 0.00 0.00 0.00 0.00 0.00 0.00 0.00 0.00 0.00 0.00 0.00 0.00 0.00 0.00 0.00 0.00 0.00 0.00 0.00 0.00 0.00 0.00 0.00 0.00
0.50 0.24 0.20 0.19 0.14 0.11 0.08 0.06 0.04 0.03 0.04 0.05 0.24 0.36 0.38 0.30 0.27 0.14 0.01 0.00 0.00 0.00 0.01 0.01 0.00 0.00 0.00 0.00 0.00 0.00 0.00 0.00 0.00 0.00 0.00 0.00 0.00 0.00 0.00 0.00 0.00 0.00 0.00 0.00 0.00 0.00 0.00 0.00 0.00 0.00 0.00 0.00 0.00 0.00
0.36 0.09 0.08 0.08 0.06 0.05 0.05 0.04 0.06 0.04 0.02 0.03 0.07 0.13 0.22 0.29 0.21 0.10 0.02 0.03 0.03 0.02 0.01 0.01 0.01 0.01 0.00 0.00 0.00 0.00 0.00 0.00 0.00 0.00 0.00 0.00 0.00 0.00 0.00 0.00 0.00 0.01 0.00 0.00 0.00 0.00 0.00 0.00 0.00 0.00 0.00 0.00 0.00 0.00
0.25 0.10 0.03 0.02 0.05 0.05 0.03 0.01 0.01 0.04 0.09 0.07 0.02 0.06 0.19 0.31 0.21 0.05 0.07 0.04 0.07 0.05 0.02 0.01 0.01 0.01 0.00 0.00 0.00 0.00 0.00 0.00 0.00 0.00 0.01 0.00 0.00 0.00 0.00 0.00 0.00 0.00 0.00 0.00 0.00 0.00 0.00 0.00 0.00 0.00 0.00 0.00 0.00 0.00
0.13 0.06 0.04 0.02 0.02 0.05 0.07 0.05 0.06 0.05 0.02 0.01 0.04 0.08 0.14 0.13 0.05 0.02 0.04 0.01 0.00 0.00 0.01 0.00 0.01 0.01 0.01 0.01 0.01 0.01 0.01 0.00 0.00 0.00 0.00 0.00 0.00 0.00 0.00 0.00 0.00 0.00 0.00 0.00 0.00 0.00 0.00 0.00 0.00 0.00 0.00 0.00 0.00 0.00
0.10 0.06 0.07 0.06 0.03 0.03 0.04 0.05 0.06 0.05 0.05 0.06 0.07 0.03 0.03 0.01 0.02 0.02 0.01 0.00 0.00 0.00 0.01 0.01 0.00 0.00 0.00 0.00 0.01 0.02 0.01 0.00 0.00 0.00 0.00 0.00 0.00 0.00 0.00 0.00 0.01 0.00 0.00 0.00 0.00 0.00 0.00 0.00 0.00 0.00 0.00 0.00 0.00 0.00
0.01 0.02 0.08 0.09 0.08 0.06 0.03 0.03 0.05 0.07 0.08 0.09 0.16 0.14 0.07 0.02 0.02 0.00 0.00 0.00 0.00 0.00 0.01 0.01 0.00 0.00 0.00 0.00 0.00 0.00 0.00 0.01 0.00 0.00 0.00 0.00 0.00 0.00 0.00 0.00 0.01 0.00 0.00 0.00 0.00 0.01 0.03 0.03 0.03 0.02 0.01 0.01 0.01 0.01
0.02 0.02 0.01 0.02 0.04 0.04 0.06 0.07 0.06 0.05 0.05 0.05 0.06 0.06 0.05 0.03 0.03 0.02 0.01 0.01 0.00 0.00 0.01 0.01 0.01 0.00 0.00 0.00 0.00 0.00 0.00 0.00 0.01 0.00 0.01 0.00 0.00 0.00 0.00 0.00 0.00 0.00 0.00 0.00 0.00 0.01 0.02 0.02 0.02 0.01 0.01 0.01 0.00 0.00
0.03 0.04 0.04 0.02 0.01 0.01 0.02 0.02 0.03 0.04 0.04 0.05 0.06 0.05 0.03 0.02 0.01 0.02 0.02 0.01 0.01 0.01 0.01 0.01 0.01 0.01 0.01 0.01 0.01 0.01 0.01 0.00 0.00 0.00 0.00 0.00 0.00 0.00 0.00 0.00 0.00 0.01 0.01 0.01 0.01 0.01 0.01 0.01 0.01 0.01 0.00 0.00 0.00 0.00
0.05 0.04 0.04 0.07 0.08 0.04 0.02 0.04 0.03 0.03 0.03 0.04 0.05 0.06 0.06 0.04 0.01 0.02 0.02 0.02 0.02 0.01 0.00 0.00 0.00 0.00 0.00 0.00 0.00 0.01 0.01 0.00 0.01 0.03 0.03 0.02 0.02 0.02 0.01 0.01 0.01 0.02 0.02 0.02 0.02 0.02 0.03 0.03 0.02 0.01 0.01 0.00 0.00 0.00